Wetterdaten: Mittwoch, 16.09.2015
Datum Zeit Temp. Aussen Temp. o. S. +5cm Feuchte Auss BlattFeu 1 Luftdruck Regen Sonnenschein Regendauer Solar Windben Empfang
16.09.2015 00:00 11,8 C 11,7 C 10,0 C 82 % 0 lf 1002,2 hPa 0,0 l/m 0 min 0 min 0 W/m 12,6 km/h (3 Bft) 97,87 %
16.09.2015 00:02 11,8 C 11,1 C 10,0 C 82 % 0 lf 1002,1 hPa 0,0 l/m 0 min 0 min 0 W/m 12,6 km/h (3 Bft) 97,30 %
16.09.2015 00:05 11,7 C 11,7 C 10,0 C 82 % 0 lf 1002,1 hPa 0,0 l/m 0 min 0 min 0 W/m 10,5 km/h (2 Bft) 97,30 %
16.09.2015 00:08 11,7 C 11,7 C 10,0 C 82 % 0 lf 1002,0 hPa 0,0 l/m 0 min 0 min 0 W/m 12,6 km/h (3 Bft) 96,43 %
16.09.2015 00:10 11,7 C 11,7 C 10,6 C 83 % 0 lf 1002,0 hPa 0,0 l/m 0 min 0 min 0 W/m 10,5 km/h (2 Bft) 95,74 %
16.09.2015 00:12 11,7 C 11,7 C 10,6 C 83 % 0 lf 1002,1 hPa 0,0 l/m 0 min 0 min 0 W/m 12,6 km/h (3 Bft) 95,74 %
16.09.2015 00:14 11,7 C 11,7 C 10,6 C 83 % 0 lf 1002,1 hPa 0,0 l/m 0 min 0 min 0 W/m 14,6 km/h (3 Bft) 91,49 %
16.09.2015 00:16 11,7 C 11,7 C 10,6 C 84 % 0 lf 1002,1 hPa 0,0 l/m 0 min 0 min 0 W/m 10,5 km/h (2 Bft) 95,74 %
16.09.2015 00:18 11,7 C 11,7 C 10,6 C 84 % 0 lf 1002,1 hPa 0,0 l/m 0 min 0 min 0 W/m 10,5 km/h (2 Bft) 93,48 %
16.09.2015 00:20 11,7 C 11,7 C 10,6 C 84 % 0 lf 1002,3 hPa 0,0 l/m 0 min 0 min 0 W/m 14,6 km/h (3 Bft) 95,74 %
16.09.2015 00:22 11,7 C 11,7 C 10,6 C 84 % 0 lf 1002,3 hPa 0,0 l/m 0 min 0 min 0 W/m 14,6 km/h (3 Bft) 93,62 %
16.09.2015 00:24 11,7 C 11,7 C 10,6 C 84 % 0 lf 1002,2 hPa 0,0 l/m 0 min 0 min 0 W/m 14,6 km/h (3 Bft) 93,62 %
16.09.2015 00:26 11,7 C 11,7 C 10,6 C 85 % 0 lf 1002,2 hPa 0,0 l/m 0 min 0 min 0 W/m 14,6 km/h (3 Bft) 93,62 %
16.09.2015 00:28 11,7 C 12,2 C 10,6 C 85 % 0 lf 1002,2 hPa 0,0 l/m 0 min 0 min 0 W/m 16,7 km/h (3 Bft) 95,74 %
16.09.2015 00:30 11,7 C 12,2 C 10,6 C 85 % 0 lf 1002,1 hPa 0,0 l/m 0 min 0 min 0 W/m 14,6 km/h (3 Bft) 93,48 %
16.09.2015 00:32 11,7 C 12,2 C 10,6 C 85 % 0 lf 1002,2 hPa 0,0 l/m 0 min 0 min 0 W/m 12,6 km/h (3 Bft) 93,62 %
16.09.2015 00:34 11,8 C 12,2 C 10,6 C 85 % 0 lf 1002,1 hPa 0,0 l/m 0 min 0 min 0 W/m 16,7 km/h (3 Bft) 93,62 %
16.09.2015 00:36 11,8 C 12,2 C 10,6 C 85 % 0 lf 1002,0 hPa 0,0 l/m 0 min 0 min 0 W/m 16,7 km/h (3 Bft) 93,62 %
16.09.2015 00:38 11,8 C 12,2 C 10,6 C 85 % 0 lf 1002,0 hPa 0,0 l/m 0 min 0 min 0 W/m 14,6 km/h (3 Bft) 95,74 %
16.09.2015 00:40 11,8 C 12,2 C 10,6 C 86 % 0 lf 1001,9 hPa 0,0 l/m 0 min 0 min 0 W/m 18,8 km/h (3 Bft) 95,74 %
16.09.2015 00:42 11,8 C 12,2 C 10,6 C 86 % 0 lf 1001,9 hPa 0,0 l/m 0 min 0 min 0 W/m 12,6 km/h (3 Bft) 93,48 %
16.09.2015 00:44 11,9 C 12,2 C 10,6 C 86 % 0 lf 1001,9 hPa 0,0 l/m 0 min 0 min 0 W/m 12,6 km/h (3 Bft) 95,74 %
16.09.2015 00:46 11,9 C 12,2 C 10,6 C 86 % 0 lf 1001,9 hPa 0,0 l/m 0 min 0 min 0 W/m 10,5 km/h (2 Bft) 95,74 %
16.09.2015 00:48 11,9 C 12,2 C 10,6 C 86 % 0 lf 1001,9 hPa 0,0 l/m 0 min 0 min 0 W/m 14,6 km/h (3 Bft) 95,74 %
16.09.2015 00:50 11,9 C 12,2 C 10,6 C 86 % 0 lf 1001,8 hPa 0,0 l/m 0 min 0 min 0 W/m 8,4 km/h (2 Bft) 89,36 %
16.09.2015 00:52 11,9 C 12,2 C 10,6 C 86 % 0 lf 1001,7 hPa 0,0 l/m 0 min 0 min 0 W/m 10,5 km/h (2 Bft) 95,65 %
16.09.2015 00:54 11,9 C 12,2 C 10,6 C 86 % 0 lf 1001,7 hPa 0,0 l/m 0 min 0 min 0 W/m 10,5 km/h (2 Bft) 95,74 %
16.09.2015 00:56 11,9 C 12,2 C 10,6 C 86 % 0 lf 1001,8 hPa 0,0 l/m 0 min 0 min 0 W/m 12,6 km/h (3 Bft) 95,74 %
16.09.2015 00:58 11,9 C 12,2 C 10,6 C 86 % 0 lf 1001,8 hPa 0,0 l/m 0 min 0 min 0 W/m 14,6 km/h (3 Bft) 95,74 %
16.09.2015 01:00 11,9 C 12,2 C 10,6 C 86 % 0 lf 1001,8 hPa 0,0 l/m 0 min 0 min 0 W/m 8,4 km/h (2 Bft) 95,74 %
16.09.2015 01:02 11,9 C 12,2 C 10,6 C 86 % 0 lf 1001,8 hPa 0,0 l/m 0 min 0 min 0 W/m 10,5 km/h (2 Bft) 95,74 %
16.09.2015 01:04 11,9 C 12,2 C 10,6 C 86 % 0 lf 1001,7 hPa 0,0 l/m 0 min 0 min 0 W/m 14,6 km/h (3 Bft) 93,48 %
16.09.2015 01:06 11,9 C 12,2 C 10,6 C 86 % 0 lf 1001,8 hPa 0,0 l/m 0 min 0 min 0 W/m 8,4 km/h (2 Bft) 95,74 %
16.09.2015 01:08 11,9 C 12,2 C 10,6 C 86 % 0 lf 1001,6 hPa 0,0 l/m 0 min 0 min 0 W/m 12,6 km/h (3 Bft) 93,62 %
16.09.2015 01:10 11,9 C 12,2 C 10,6 C 86 % 0 lf 1001,5 hPa 0,0 l/m 0 min 0 min 0 W/m 10,5 km/h (2 Bft) 95,74 %
16.09.2015 01:12 12,0 C 12,2 C 10,6 C 86 % 0 lf 1001,5 hPa 0,0 l/m 0 min 0 min 0 W/m 8,4 km/h (2 Bft) 93,62 %
16.09.2015 01:14 12,0 C 12,2 C 10,6 C 86 % 0 lf 1001,5 hPa 0,0 l/m 0 min 0 min 0 W/m 10,5 km/h (2 Bft) 97,87 %
16.09.2015 01:16 11,9 C 12,2 C 10,6 C 86 % 0 lf 1001,5 hPa 0,0 l/m 0 min 0 min 0 W/m 14,6 km/h (3 Bft) 95,65 %
16.09.2015 01:18 11,9 C 12,2 C 10,6 C 86 % 0 lf 1001,4 hPa 0,0 l/m 0 min 0 min 0 W/m 10,5 km/h (2 Bft) 95,74 %
16.09.2015 01:20 12,0 C 12,2 C 10,6 C 86 % 0 lf 1001,3 hPa 0,0 l/m 0 min 0 min 0 W/m 14,6 km/h (3 Bft) 93,62 %
16.09.2015 01:22 12,0 C 12,2 C 10,6 C 86 % 0 lf 1001,2 hPa 0,0 l/m 0 min 0 min 0 W/m 8,4 km/h (2 Bft) 97,87 %
16.09.2015 01:24 12,0 C 12,2 C 10,6 C 87 % 0 lf 1001,2 hPa 0,0 l/m 0 min 0 min 0 W/m 14,6 km/h (3 Bft) 97,87 %
16.09.2015 01:26 12,0 C 12,2 C 10,6 C 87 % 0 lf 1001,1 hPa 0,0 l/m 0 min 0 min 0 W/m 12,6 km/h (3 Bft) 91,49 %
16.09.2015 01:28 12,0 C 12,2 C 10,6 C 87 % 0 lf 1001,1 hPa 0,0 l/m 0 min 0 min 0 W/m 10,5 km/h (2 Bft) 97,83 %
16.09.2015 01:30 12,0 C 12,2 C 10,6 C 87 % 0 lf 1001,0 hPa 0,0 l/m 0 min 0 min 0 W/m 8,4 km/h (2 Bft) 93,62 %
16.09.2015 01:32 12,0 C 12,2 C 10,6 C 87 % 0 lf 1001,1 hPa 0,0 l/m 0 min 0 min 0 W/m 8,4 km/h (2 Bft) 100,00 %
16.09.2015 01:34 12,0 C 12,2 C 10,6 C 87 % 0 lf 1001,0 hPa 0,0 l/m 0 min 0 min 0 W/m 8,4 km/h (2 Bft) 100,00 %
16.09.2015 01:36 12,0 C 12,2 C 10,6 C 87 % 0 lf 1001,0 hPa 0,0 l/m 0 min 0 min 0 W/m 10,5 km/h (2 Bft) 97,87 %
16.09.2015 01:38 12,0 C 12,2 C 10,6 C 87 % 0 lf 1001,0 hPa 0,0 l/m 0 min 0 min 0 W/m 10,5 km/h (2 Bft) 97,87 %
16.09.2015 01:40 12,0 C 12,2 C 11,1 C 87 % 0 lf 1001,0 hPa 0,0 l/m 0 min 0 min 0 W/m 12,6 km/h (3 Bft) 100,00 %
16.09.2015 01:42 12,0 C 12,2 C 11,1 C 87 % 0 lf 1001,0 hPa 0,0 l/m 0 min 0 min 0 W/m 14,6 km/h (3 Bft) 95,74 %
16.09.2015 01:44 12,0 C 12,2 C 11,1 C 87 % 0 lf 1000,9 hPa 0,0 l/m 0 min 0 min 0 W/m 12,6 km/h (3 Bft) 100,00 %
16.09.2015 01:46 12,1 C 12,2 C 11,1 C 87 % 0 lf 1000,8 hPa 0,0 l/m 0 min 0 min 0 W/m 12,6 km/h (3 Bft) 97,87 %
16.09.2015 01:48 12,1 C 12,2 C 11,1 C 87 % 0 lf 1000,8 hPa 0,0 l/m 0 min 0 min 0 W/m 10,5 km/h (2 Bft) 100,00 %
16.09.2015 01:50 12,1 C 12,2 C 11,1 C 87 % 0 lf 1000,8 hPa 0,0 l/m 0 min 0 min 0 W/m 10,5 km/h (2 Bft) 97,87 %
16.09.2015 01:52 12,1 C 12,2 C 11,1 C 87 % 0 lf 1000,8 hPa 0,0 l/m 0 min 0 min 0 W/m 16,7 km/h (3 Bft) 100,00 %
16.09.2015 01:54 12,1 C 12,2 C 11,1 C 87 % 0 lf 1000,7 hPa 0,0 l/m 0 min 0 min 0 W/m 12,6 km/h (3 Bft) 100,00 %
16.09.2015 01:56 12,1 C 12,8 C 11,1 C 87 % 0 lf 1000,8 hPa 0,0 l/m 0 min 0 min 0 W/m 12,6 km/h (3 Bft) 100,00 %
16.09.2015 01:58 12,2 C 12,8 C 11,1 C 87 % 0 lf 1000,8 hPa 0,0 l/m 0 min 0 min 0 W/m 18,8 km/h (3 Bft) 97,87 %
16.09.2015 02:00 12,2 C 12,8 C 11,1 C 87 % 0 lf 1000,7 hPa 0,0 l/m 0 min 0 min 0 W/m 18,8 km/h (3 Bft) 100,00 %
16.09.2015 02:02 12,2 C 12,8 C 11,1 C 87 % 0 lf 1000,7 hPa 0,0 l/m 0 min 0 min 0 W/m 16,7 km/h (3 Bft) 97,83 %
16.09.2015 02:04 12,2 C 12,8 C 11,1 C 88 % 0 lf 1000,7 hPa 0,0 l/m 0 min 0 min 0 W/m 16,7 km/h (3 Bft) 100,00 %
16.09.2015 02:06 12,2 C 12,8 C 11,1 C 88 % 0 lf 1000,7 hPa 0,0 l/m 0 min 0 min 0 W/m 16,7 km/h (3 Bft) 100,00 %
16.09.2015 02:08 12,3 C 12,8 C 11,1 C 88 % 0 lf 1000,7 hPa 0,0 l/m 0 min 0 min 0 W/m 12,6 km/h (3 Bft) 100,00 %
16.09.2015 02:10 12,3 C 12,8 C 11,1 C 88 % 0 lf 1000,7 hPa 0,0 l/m 0 min 0 min 0 W/m 12,6 km/h (3 Bft) 97,87 %
16.09.2015 02:12 12,3 C 12,8 C 11,1 C 88 % 0 lf 1000,7 hPa 0,0 l/m 0 min 0 min 0 W/m 14,6 km/h (3 Bft) 97,87 %
16.09.2015 02:14 12,3 C 12,8 C 11,1 C 88 % 0 lf 1000,7 hPa 0,0 l/m 0 min 0 min 0 W/m 14,6 km/h (3 Bft) 100,00 %
16.09.2015 02:16 12,4 C 12,8 C 11,1 C 88 % 0 lf 1000,7 hPa 0,0 l/m 0 min 0 min 0 W/m 12,6 km/h (3 Bft) 97,87 %
16.09.2015 02:18 12,4 C 12,8 C 11,1 C 88 % 0 lf 1000,7 hPa 0,0 l/m 0 min 0 min 0 W/m 12,6 km/h (3 Bft) 100,00 %
16.09.2015 02:20 12,4 C 12,8 C 11,7 C 88 % 0 lf 1000,8 hPa 0,0 l/m 0 min 0 min 0 W/m 14,6 km/h (3 Bft) 100,00 %
16.09.2015 02:22 12,4 C 12,8 C 11,7 C 88 % 0 lf 1000,8 hPa 0,0 l/m 0 min 0 min 0 W/m 16,7 km/h (3 Bft) 100,00 %
16.09.2015 02:24 12,4 C 12,8 C 11,1 C 88 % 1 lf 1000,8 hPa 0,0 l/m 0 min 0 min 0 W/m 10,5 km/h (2 Bft) 100,00 %
16.09.2015 02:26 12,4 C 12,8 C 11,1 C 88 % 1 lf 1000,7 hPa 0,0 l/m 0 min 2 min 0 W/m 14,6 km/h (3 Bft) 100,00 %
16.09.2015 02:28 12,5 C 12,8 C 11,1 C 88 % 1 lf 1000,7 hPa 0,0 l/m 0 min 2 min 0 W/m 14,6 km/h (3 Bft) 100,00 %
16.09.2015 02:30 12,5 C 12,2 C 11,1 C 88 % 1 lf 1000,6 hPa 0,0 l/m 0 min 2 min 0 W/m 16,7 km/h (3 Bft) 93,62 %
16.09.2015 02:32 12,5 C 12,2 C 11,1 C 88 % 1 lf 1000,6 hPa 0,0 l/m 0 min 2 min 0 W/m 12,6 km/h (3 Bft) 97,87 %
16.09.2015 02:34 12,5 C 12,2 C 11,1 C 88 % 1 lf 1000,6 hPa 0,0 l/m 0 min 2 min 0 W/m 18,8 km/h (3 Bft) 95,74 %
16.09.2015 02:36 12,6 C 12,2 C 11,1 C 88 % 0 lf 1000,5 hPa 0,0 l/m 0 min 2 min 0 W/m 18,8 km/h (3 Bft) 97,87 %
16.09.2015 02:38 12,6 C 12,2 C 11,1 C 88 % 0 lf 1000,5 hPa 0,0 l/m 0 min 0 min 0 W/m 18,8 km/h (3 Bft) 95,65 %
16.09.2015 02:40 12,6 C 12,2 C 11,1 C 88 % 2 lf 1000,5 hPa 0,0 l/m 0 min 2 min 0 W/m 20,9 km/h (4 Bft) 95,74 %
16.09.2015 02:42 12,6 C 12,2 C 10,6 C 88 % 1 lf 1000,5 hPa 0,0 l/m 0 min 2 min 0 W/m 18,8 km/h (3 Bft) 97,87 %
16.09.2015 02:44 12,6 C 12,2 C 10,6 C 89 % 1 lf 1000,4 hPa 0,0 l/m 0 min 2 min 0 W/m 23,0 km/h (4 Bft) 93,62 %
16.09.2015 02:46 12,6 C 12,2 C 10,6 C 89 % 1 lf 1000,4 hPa 0,0 l/m 0 min 2 min 0 W/m 25,1 km/h (4 Bft) 91,49 %
16.09.2015 02:48 12,6 C 12,2 C 10,6 C 89 % 1 lf 1000,4 hPa 0,0 l/m 0 min 2 min 0 W/m 20,9 km/h (4 Bft) 95,74 %
16.09.2015 02:50 12,7 C 12,2 C 10,6 C 89 % 3 lf 1000,4 hPa 0,0 l/m 0 min 2 min 0 W/m 20,9 km/h (4 Bft) 91,30 %
16.09.2015 02:52 12,7 C 12,2 C 10,6 C 89 % 2 lf 1000,4 hPa 0,0 l/m 0 min 2 min 0 W/m 20,9 km/h (4 Bft) 93,62 %
16.09.2015 02:54 12,6 C 11,7 C 10,6 C 89 % 1 lf 1000,4 hPa 0,0 l/m 0 min 2 min 0 W/m 23,0 km/h (4 Bft) 93,62 %
16.09.2015 02:56 12,6 C 11,7 C 10,6 C 90 % 1 lf 1000,4 hPa 0,0 l/m 0 min 2 min 0 W/m 16,7 km/h (3 Bft) 91,49 %
16.09.2015 02:58 12,7 C 11,7 C 10,6 C 90 % 1 lf 1000,4 hPa 0,0 l/m 0 min 2 min 0 W/m 18,8 km/h (3 Bft) 93,62 %
16.09.2015 03:00 12,7 C 11,7 C 10,6 C 90 % 1 lf 1000,3 hPa 0,0 l/m 0 min 2 min 0 W/m 16,7 km/h (3 Bft) 91,49 %
16.09.2015 03:02 12,6 C 11,7 C 10,6 C 90 % 1 lf 1000,2 hPa 0,0 l/m 0 min 2 min 0 W/m 16,7 km/h (3 Bft) 93,48 %
16.09.2015 03:04 12,6 C 11,7 C 10,6 C 90 % 2 lf 1000,2 hPa 0,2 l/m 0 min 2 min 0 W/m 16,7 km/h (3 Bft) 91,49 %
16.09.2015 03:06 12,6 C 11,7 C 10,6 C 90 % 1 lf 1000,2 hPa 0,0 l/m 0 min 2 min 0 W/m 23,0 km/h (4 Bft) 91,49 %
16.09.2015 03:08 12,6 C 11,7 C 10,6 C 90 % 2 lf 1000,2 hPa 0,0 l/m 0 min 2 min 0 W/m 14,6 km/h (3 Bft) 91,49 %
16.09.2015 03:10 12,6 C 11,7 C 10,6 C 90 % 2 lf 1000,2 hPa 0,0 l/m 0 min 2 min 0 W/m 18,8 km/h (3 Bft) 93,62 %
16.09.2015 03:12 12,6 C 11,7 C 10,6 C 91 % 2 lf 1000,2 hPa 0,0 l/m 0 min 2 min 0 W/m 16,7 km/h (3 Bft) 93,48 %
16.09.2015 03:14 12,6 C 11,7 C 10,6 C 91 % 3 lf 1000,0 hPa 0,0 l/m 0 min 2 min 0 W/m 14,6 km/h (3 Bft) 91,49 %
16.09.2015 03:16 12,6 C 11,7 C 10,6 C 91 % 3 lf 999,9 hPa 0,0 l/m 0 min 2 min 0 W/m 25,1 km/h (4 Bft) 91,49 %
16.09.2015 03:18 12,6 C 11,7 C 10,6 C 91 % 3 lf 1000,0 hPa 0,0 l/m 0 min 2 min 0 W/m 18,8 km/h (3 Bft) 93,62 %
16.09.2015 03:20 12,6 C 11,7 C 10,6 C 91 % 3 lf 999,9 hPa 0,0 l/m 0 min 2 min 0 W/m 16,7 km/h (3 Bft) 93,62 %
16.09.2015 03:22 12,5 C 11,7 C 10,6 C 92 % 3 lf 999,9 hPa 0,0 l/m 0 min 2 min 0 W/m 16,7 km/h (3 Bft) 97,87 %
16.09.2015 03:24 12,5 C 11,7 C 10,6 C 92 % 4 lf 999,7 hPa 0,0 l/m 0 min 2 min 0 W/m 16,7 km/h (3 Bft) 95,65 %
16.09.2015 03:26 12,5 C 11,7 C 10,6 C 92 % 5 lf 999,7 hPa 0,2 l/m 0 min 2 min 0 W/m 18,8 km/h (3 Bft) 97,87 %
16.09.2015 03:28 12,5 C 11,7 C 10,6 C 92 % 5 lf 999,6 hPa 0,0 l/m 0 min 2 min 0 W/m 16,7 km/h (3 Bft) 97,87 %
16.09.2015 03:30 12,4 C 11,7 C 10,6 C 92 % 7 lf 999,6 hPa 0,0 l/m 0 min 2 min 0 W/m 18,8 km/h (3 Bft) 95,74 %
16.09.2015 03:32 12,4 C 11,7 C 10,6 C 92 % 9 lf 999,5 hPa 0,0 l/m 0 min 2 min 0 W/m 16,7 km/h (3 Bft) 95,74 %
16.09.2015 03:34 12,4 C 11,7 C 10,6 C 92 % 9 lf 999,3 hPa 0,0 l/m 0 min 2 min 0 W/m 14,6 km/h (3 Bft) 97,87 %
16.09.2015 03:36 12,4 C 11,7 C 10,6 C 92 % 8 lf 999,4 hPa 0,0 l/m 0 min 2 min 0 W/m 23,0 km/h (4 Bft) 100,00 %
16.09.2015 03:38 12,4 C 11,7 C 10,6 C 92 % 7 lf 999,3 hPa 0,0 l/m 0 min 2 min 0 W/m 20,9 km/h (4 Bft) 100,00 %
16.09.2015 03:40 12,4 C 11,7 C 10,6 C 92 % 7 lf 999,2 hPa 0,0 l/m 0 min 0 min 0 W/m 20,9 km/h (4 Bft) 95,74 %
16.09.2015 03:42 12,4 C 11,7 C 10,6 C 93 % 6 lf 999,2 hPa 0,0 l/m 0 min 0 min 0 W/m 16,7 km/h (3 Bft) 100,00 %
16.09.2015 03:44 12,4 C 11,7 C 10,6 C 93 % 4 lf 999,1 hPa 0,0 l/m 0 min 0 min 0 W/m 18,8 km/h (3 Bft) 100,00 %
16.09.2015 03:46 12,4 C 11,7 C 10,6 C 93 % 4 lf 999,1 hPa 0,0 l/m 0 min 0 min 0 W/m 20,9 km/h (4 Bft) 100,00 %
16.09.2015 03:48 12,4 C 11,7 C 10,6 C 93 % 4 lf 999,2 hPa 0,0 l/m 0 min 0 min 0 W/m 16,7 km/h (3 Bft) 97,83 %
16.09.2015 03:50 12,4 C 11,7 C 10,6 C 93 % 3 lf 999,1 hPa 0,0 l/m 0 min 0 min 0 W/m 18,8 km/h (3 Bft) 97,87 %
16.09.2015 03:52 12,4 C 11,7 C 10,6 C 93 % 3 lf 999,0 hPa 0,0 l/m 0 min 2 min 0 W/m 20,9 km/h (4 Bft) 100,00 %
16.09.2015 03:54 12,4 C 11,7 C 10,6 C 93 % 4 lf 999,0 hPa 0,0 l/m 0 min 2 min 0 W/m 23,0 km/h (4 Bft) 100,00 %
16.09.2015 03:56 12,4 C 11,7 C 10,6 C 93 % 4 lf 999,0 hPa 0,0 l/m 0 min 2 min 0 W/m 16,7 km/h (3 Bft) 100,00 %
16.09.2015 03:58 12,4 C 11,7 C 10,6 C 94 % 4 lf 999,1 hPa 0,0 l/m 0 min 2 min 0 W/m 25,1 km/h (4 Bft) 97,87 %
16.09.2015 04:00 12,4 C 11,7 C 10,6 C 94 % 4 lf 999,1 hPa 0,0 l/m 0 min 2 min 0 W/m 16,7 km/h (3 Bft) 100,00 %
16.09.2015 04:02 12,4 C 11,7 C 10,6 C 94 % 3 lf 999,0 hPa 0,0 l/m 0 min 2 min 0 W/m 12,6 km/h (3 Bft) 100,00 %
16.09.2015 04:04 12,4 C 11,7 C 10,6 C 94 % 4 lf 999,0 hPa 0,0 l/m 0 min 2 min 0 W/m 14,6 km/h (3 Bft) 97,87 %
16.09.2015 04:06 12,4 C 11,7 C 10,6 C 94 % 7 lf 999,1 hPa 0,0 l/m 0 min 2 min 0 W/m 25,1 km/h (4 Bft) 100,00 %
16.09.2015 04:08 12,4 C 11,7 C 10,6 C 94 % 6 lf 999,0 hPa 0,0 l/m 0 min 2 min 0 W/m 20,9 km/h (4 Bft) 97,87 %
16.09.2015 04:10 12,4 C 11,7 C 10,6 C 94 % 6 lf 998,9 hPa 0,0 l/m 0 min 2 min 0 W/m 20,9 km/h (4 Bft) 100,00 %
16.09.2015 04:12 12,4 C 11,7 C 10,6 C 94 % 6 lf 998,9 hPa 0,0 l/m 0 min 2 min 0 W/m 16,7 km/h (3 Bft) 97,83 %
16.09.2015 04:14 12,4 C 11,7 C 10,6 C 94 % 6 lf 998,8 hPa 0,0 l/m 0 min 2 min 0 W/m 16,7 km/h (3 Bft) 97,87 %
16.09.2015 04:16 12,4 C 11,7 C 10,6 C 94 % 6 lf 998,7 hPa 0,0 l/m 0 min 2 min 0 W/m 27,2 km/h (4 Bft) 93,62 %
16.09.2015 04:18 12,4 C 11,7 C 10,6 C 94 % 6 lf 998,6 hPa 0,0 l/m 0 min 2 min 0 W/m 18,8 km/h (3 Bft) 91,49 %
16.09.2015 04:20 12,4 C 11,7 C 10,6 C 94 % 6 lf 998,6 hPa 0,0 l/m 0 min 2 min 0 W/m 20,9 km/h (4 Bft) 97,87 %
16.09.2015 04:22 12,4 C 11,7 C 10,6 C 94 % 6 lf 998,6 hPa 0,0 l/m 0 min 2 min 0 W/m 18,8 km/h (3 Bft) 97,87 %
16.09.2015 04:24 12,4 C 12,2 C 10,6 C 94 % 6 lf 998,6 hPa 0,0 l/m 0 min 2 min 0 W/m 25,1 km/h (4 Bft) 95,65 %
16.09.2015 04:26 12,4 C 12,2 C 10,6 C 94 % 4 lf 998,6 hPa 0,0 l/m 0 min 2 min 0 W/m 23,0 km/h (4 Bft) 95,74 %
16.09.2015 04:28 12,4 C 12,2 C 10,6 C 95 % 4 lf 998,6 hPa 0,0 l/m 0 min 2 min 0 W/m 16,7 km/h (3 Bft) 95,74 %
16.09.2015 04:30 12,4 C 12,2 C 10,6 C 95 % 4 lf 998,6 hPa 0,0 l/m 0 min 2 min 0 W/m 20,9 km/h (4 Bft) 97,87 %
16.09.2015 04:32 12,4 C 12,2 C 10,6 C 95 % 3 lf 998,5 hPa 0,0 l/m 0 min 2 min 0 W/m 25,1 km/h (4 Bft) 95,74 %
16.09.2015 04:34 12,4 C 12,2 C 10,6 C 95 % 3 lf 998,3 hPa 0,0 l/m 0 min 2 min 0 W/m 14,6 km/h (3 Bft) 95,65 %
16.09.2015 04:36 12,4 C 12,2 C 10,6 C 95 % 3 lf 998,2 hPa 0,0 l/m 0 min 2 min 0 W/m 23,0 km/h (4 Bft) 93,62 %
16.09.2015 04:38 12,4 C 12,2 C 10,6 C 95 % 3 lf 998,1 hPa 0,0 l/m 0 min 2 min 0 W/m 23,0 km/h (4 Bft) 95,74 %
16.09.2015 04:40 12,4 C 12,2 C 10,6 C 95 % 2 lf 998,1 hPa 0,0 l/m 0 min 2 min 0 W/m 25,1 km/h (4 Bft) 95,74 %
16.09.2015 04:42 12,4 C 11,7 C 10,6 C 95 % 2 lf 998,1 hPa 0,0 l/m 0 min 2 min 0 W/m 23,0 km/h (4 Bft) 95,74 %
16.09.2015 04:44 12,4 C 11,7 C 10,6 C 95 % 2 lf 998,0 hPa 0,0 l/m 0 min 2 min 0 W/m 20,9 km/h (4 Bft) 95,74 %
16.09.2015 04:46 12,3 C 11,7 C 10,6 C 95 % 2 lf 997,8 hPa 0,0 l/m 0 min 2 min 0 W/m 29,3 km/h (5 Bft) 91,30 %
16.09.2015 04:48 12,3 C 11,7 C 10,6 C 95 % 2 lf 997,9 hPa 0,0 l/m 0 min 2 min 0 W/m 33,5 km/h (5 Bft) 95,74 %
16.09.2015 04:50 12,3 C 11,7 C 10,6 C 95 % 1 lf 997,9 hPa 0,0 l/m 0 min 2 min 0 W/m 27,2 km/h (4 Bft) 95,74 %
16.09.2015 04:52 12,3 C 12,2 C 10,6 C 95 % 1 lf 998,0 hPa 0,0 l/m 0 min 2 min 0 W/m 20,9 km/h (4 Bft) 93,62 %
16.09.2015 04:54 12,3 C 12,2 C 10,6 C 95 % 1 lf 997,9 hPa 0,0 l/m 0 min 2 min 0 W/m 29,3 km/h (5 Bft) 93,62 %
16.09.2015 04:56 12,3 C 12,2 C 10,6 C 95 % 1 lf 997,9 hPa 0,0 l/m 0 min 2 min 0 W/m 29,3 km/h (5 Bft) 95,74 %
16.09.2015 04:58 12,3 C 12,2 C 10,6 C 95 % 1 lf 997,9 hPa 0,0 l/m 0 min 2 min 0 W/m 23,0 km/h (4 Bft) 95,65 %
16.09.2015 05:00 12,3 C 12,2 C 10,6 C 95 % 1 lf 997,8 hPa 0,0 l/m 0 min 2 min 0 W/m 33,5 km/h (5 Bft) 95,74 %
16.09.2015 05:02 12,3 C 12,2 C 10,6 C 95 % 1 lf 997,9 hPa 0,0 l/m 0 min 2 min 0 W/m 18,8 km/h (3 Bft) 95,74 %
16.09.2015 05:04 12,3 C 12,2 C 10,6 C 95 % 1 lf 997,9 hPa 0,0 l/m 0 min 2 min 0 W/m 29,3 km/h (5 Bft) 95,74 %
16.09.2015 05:06 12,3 C 12,2 C 10,6 C 95 % 1 lf 997,8 hPa 0,0 l/m 0 min 2 min 0 W/m 27,2 km/h (4 Bft) 97,87 %
16.09.2015 05:08 12,3 C 12,2 C 10,6 C 95 % 1 lf 997,9 hPa 0,0 l/m 0 min 2 min 0 W/m 25,1 km/h (4 Bft) 97,87 %
16.09.2015 05:10 12,3 C 12,2 C 10,6 C 95 % 1 lf 997,8 hPa 0,0 l/m 0 min 2 min 0 W/m 18,8 km/h (3 Bft) 97,83 %
16.09.2015 05:12 12,3 C 12,2 C 10,6 C 95 % 1 lf 997,8 hPa 0,0 l/m 0 min 0 min 0 W/m 16,7 km/h (3 Bft) 97,87 %
16.09.2015 05:14 12,3 C 12,2 C 10,6 C 95 % 1 lf 997,7 hPa 0,0 l/m 0 min 2 min 0 W/m 16,7 km/h (3 Bft) 97,87 %
16.09.2015 05:16 12,3 C 12,2 C 10,6 C 96 % 1 lf 997,6 hPa 0,0 l/m 0 min 2 min 0 W/m 29,3 km/h (5 Bft) 97,87 %
16.09.2015 05:18 12,3 C 12,2 C 10,6 C 96 % 1 lf 997,5 hPa 0,0 l/m 0 min 2 min 0 W/m 23,0 km/h (4 Bft) 95,74 %
16.09.2015 05:20 12,3 C 11,7 C 10,6 C 95 % 1 lf 997,5 hPa 0,0 l/m 0 min 2 min 0 W/m 23,0 km/h (4 Bft) 95,74 %
16.09.2015 05:22 12,3 C 11,7 C 10,6 C 96 % 3 lf 997,5 hPa 0,2 l/m 0 min 2 min 0 W/m 16,7 km/h (3 Bft) 100,00 %
16.09.2015 05:24 12,3 C 11,7 C 10,6 C 95 % 4 lf 997,3 hPa 0,0 l/m 0 min 2 min 0 W/m 25,1 km/h (4 Bft) 100,00 %
16.09.2015 05:26 12,3 C 11,7 C 10,6 C 95 % 6 lf 997,3 hPa 0,0 l/m 0 min 2 min 0 W/m 23,0 km/h (4 Bft) 97,87 %
16.09.2015 05:28 12,3 C 11,7 C 10,6 C 95 % 7 lf 997,2 hPa 0,0 l/m 0 min 2 min 0 W/m 18,8 km/h (3 Bft) 93,62 %
16.09.2015 05:30 12,3 C 11,7 C 10,6 C 95 % 8 lf 997,2 hPa 0,0 l/m 0 min 2 min 0 W/m 16,7 km/h (3 Bft) 97,87 %
16.09.2015 05:32 12,3 C 11,7 C 10,6 C 95 % 9 lf 997,1 hPa 0,2 l/m 0 min 2 min 0 W/m 18,8 km/h (3 Bft) 91,49 %
16.09.2015 05:34 12,3 C 11,7 C 10,6 C 95 % 10 lf 997,1 hPa 0,0 l/m 0 min 2 min 0 W/m 16,7 km/h (3 Bft) 93,48 %
16.09.2015 05:36 12,3 C 11,7 C 10,6 C 96 % 12 lf 997,1 hPa 0,0 l/m 0 min 2 min 0 W/m 25,1 km/h (4 Bft) 95,74 %
16.09.2015 05:38 12,3 C 11,7 C 10,6 C 96 % 14 lf 997,1 hPa 0,0 l/m 0 min 2 min 0 W/m 25,1 km/h (4 Bft) 95,74 %
16.09.2015 05:40 12,3 C 11,7 C 10,6 C 96 % 14 lf 997,1 hPa 0,0 l/m 0 min 2 min 0 W/m 31,4 km/h (5 Bft) 95,74 %
16.09.2015 05:42 12,3 C 11,7 C 10,6 C 96 % 14 lf 997,1 hPa 0,0 l/m 0 min 2 min 0 W/m 20,9 km/h (4 Bft) 95,74 %
16.09.2015 05:44 12,3 C 11,7 C 10,6 C 96 % 14 lf 997,0 hPa 0,0 l/m 0 min 2 min 0 W/m 20,9 km/h (4 Bft) 95,65 %
16.09.2015 05:46 12,3 C 11,7 C 10,6 C 96 % 14 lf 997,0 hPa 0,0 l/m 0 min 2 min 0 W/m 20,9 km/h (4 Bft) 93,62 %
16.09.2015 05:48 12,3 C 11,7 C 10,6 C 96 % 14 lf 996,9 hPa 0,0 l/m 0 min 2 min 0 W/m 23,0 km/h (4 Bft) 89,36 %
16.09.2015 05:50 12,3 C 11,7 C 10,6 C 96 % 14 lf 996,7 hPa 0,0 l/m 0 min 2 min 0 W/m 20,9 km/h (4 Bft) 91,49 %
16.09.2015 05:52 12,3 C 11,7 C 10,6 C 96 % 14 lf 996,7 hPa 0,0 l/m 0 min 2 min 0 W/m 27,2 km/h (4 Bft) 93,62 %
16.09.2015 05:54 12,3 C 11,7 C 10,6 C 96 % 15 lf 996,8 hPa 0,0 l/m 0 min 2 min 0 W/m 23,0 km/h (4 Bft) 93,62 %
16.09.2015 05:56 12,3 C 11,7 C 10,6 C 96 % 15 lf 996,9 hPa 0,2 l/m 0 min 2 min 0 W/m 14,6 km/h (3 Bft) 93,48 %
16.09.2015 05:58 12,3 C 11,7 C 10,6 C 96 % 15 lf 996,9 hPa 0,0 l/m 0 min 2 min 0 W/m 33,5 km/h (5 Bft) 95,74 %
16.09.2015 06:00 12,3 C 11,7 C 10,6 C 96 % 15 lf 996,9 hPa 0,0 l/m 0 min 2 min 0 W/m 27,2 km/h (4 Bft) 95,74 %
16.09.2015 06:02 12,3 C 11,7 C 10,6 C 96 % 15 lf 996,8 hPa 0,0 l/m 0 min 2 min 0 W/m 18,8 km/h (3 Bft) 93,62 %
16.09.2015 06:05 12,3 C 11,7 C 10,6 C 96 % 15 lf 996,7 hPa 0,2 l/m 0 min 2 min 0 W/m 27,2 km/h (4 Bft) 93,62 %
16.09.2015 06:06 12,3 C 11,7 C 10,6 C 96 % 15 lf 996,7 hPa 0,2 l/m 0 min 1 min 0 W/m 27,2 km/h (4 Bft) 90,32 %
16.09.2015 06:08 12,3 C 12,2 C 10,6 C 96 % 15 lf 996,7 hPa 0,0 l/m 0 min 2 min 0 W/m 25,1 km/h (4 Bft) 93,48 %
16.09.2015 06:10 12,3 C 12,2 C 10,6 C 96 % 15 lf 996,8 hPa 0,0 l/m 0 min 2 min 0 W/m 18,8 km/h (3 Bft) 93,62 %
16.09.2015 06:12 12,3 C 12,2 C 10,6 C 96 % 15 lf 996,7 hPa 0,0 l/m 0 min 2 min 0 W/m 14,6 km/h (3 Bft) 95,74 %
16.09.2015 06:14 12,3 C 12,2 C 11,1 C 96 % 15 lf 996,7 hPa 0,0 l/m 0 min 2 min 0 W/m 18,8 km/h (3 Bft) 89,36 %
16.09.2015 06:16 12,3 C 12,2 C 11,1 C 96 % 15 lf 996,6 hPa 0,0 l/m 0 min 2 min 0 W/m 20,9 km/h (4 Bft) 97,87 %
16.09.2015 06:18 12,3 C 12,2 C 11,1 C 96 % 15 lf 996,4 hPa 0,0 l/m 0 min 2 min 0 W/m 18,8 km/h (3 Bft) 100,00 %
16.09.2015 06:20 12,3 C 12,2 C 11,1 C 96 % 15 lf 996,4 hPa 0,0 l/m 0 min 2 min 0 W/m 31,4 km/h (5 Bft) 100,00 %
16.09.2015 06:22 12,3 C 12,2 C 11,1 C 96 % 15 lf 996,4 hPa 0,0 l/m 0 min 2 min 0 W/m 29,3 km/h (5 Bft) 97,87 %
16.09.2015 06:24 12,3 C 12,2 C 11,1 C 96 % 15 lf 996,3 hPa 0,0 l/m 0 min 2 min 0 W/m 23,0 km/h (4 Bft) 97,87 %
16.09.2015 06:26 12,3 C 12,2 C 11,1 C 96 % 15 lf 996,2 hPa 0,0 l/m 0 min 2 min 0 W/m 20,9 km/h (4 Bft) 97,87 %
16.09.2015 06:28 12,3 C 12,2 C 11,1 C 96 % 15 lf 996,1 hPa 0,0 l/m 0 min 2 min 0 W/m 20,9 km/h (4 Bft) 100,00 %
16.09.2015 06:30 12,3 C 12,2 C 10,6 C 96 % 15 lf 996,0 hPa 0,0 l/m 0 min 2 min 0 W/m 31,4 km/h (5 Bft) 97,87 %
16.09.2015 06:32 12,3 C 12,2 C 11,1 C 96 % 15 lf 996,0 hPa 0,0 l/m 0 min 2 min 0 W/m 31,4 km/h (5 Bft) 97,83 %
16.09.2015 06:34 12,3 C 12,2 C 11,1 C 96 % 15 lf 996,0 hPa 0,0 l/m 0 min 2 min 0 W/m 18,8 km/h (3 Bft) 97,87 %
16.09.2015 06:36 12,3 C 12,2 C 11,1 C 96 % 15 lf 995,9 hPa 0,0 l/m 0 min 0 min 0 W/m 29,3 km/h (5 Bft) 97,87 %
16.09.2015 06:38 12,3 C 12,2 C 11,1 C 96 % 15 lf 995,8 hPa 0,0 l/m 0 min 2 min 0 W/m 29,3 km/h (5 Bft) 97,87 %
16.09.2015 06:40 12,3 C 12,2 C 11,1 C 96 % 15 lf 995,8 hPa 0,0 l/m 0 min 2 min 0 W/m 27,2 km/h (4 Bft) 97,87 %
16.09.2015 06:42 12,3 C 12,2 C 11,1 C 96 % 15 lf 995,8 hPa 0,0 l/m 0 min 2 min 0 W/m 25,1 km/h (4 Bft) 97,14 %
16.09.2015 06:44 12,3 C 12,2 C 11,1 C 96 % 15 lf 995,8 hPa 0,0 l/m 0 min 2 min 0 W/m 27,2 km/h (4 Bft) 95,08 %
16.09.2015 06:46 12,3 C 12,2 C 11,1 C 96 % 15 lf 995,7 hPa 0,0 l/m 0 min 2 min 0 W/m 27,2 km/h (4 Bft) 97,87 %
16.09.2015 06:48 12,4 C 12,2 C 11,1 C 96 % 15 lf 995,7 hPa 0,0 l/m 0 min 2 min 0 W/m 27,2 km/h (4 Bft) 97,87 %
16.09.2015 06:50 12,3 C 12,2 C 11,1 C 96 % 15 lf 995,7 hPa 0,0 l/m 0 min 2 min 0 W/m 27,2 km/h (4 Bft) 95,74 %
16.09.2015 06:52 12,4 C 12,2 C 11,1 C 96 % 15 lf 995,5 hPa 0,0 l/m 0 min 2 min 0 W/m 27,2 km/h (4 Bft) 97,87 %
16.09.2015 06:54 12,4 C 12,2 C 11,1 C 96 % 15 lf 995,4 hPa 0,0 l/m 0 min 2 min 0 W/m 27,2 km/h (4 Bft) 97,83 %
16.09.2015 06:56 12,4 C 12,2 C 11,1 C 96 % 15 lf 995,4 hPa 0,0 l/m 0 min 2 min 0 W/m 23,0 km/h (4 Bft) 97,87 %
16.09.2015 06:58 12,4 C 12,2 C 11,1 C 96 % 15 lf 995,2 hPa 0,0 l/m 0 min 2 min 0 W/m 20,9 km/h (4 Bft) 97,87 %
16.09.2015 07:00 12,4 C 12,2 C 11,1 C 96 % 15 lf 995,2 hPa 0,0 l/m 0 min 2 min 0 W/m 25,1 km/h (4 Bft) 100,00 %
16.09.2015 07:02 12,4 C 12,2 C 11,1 C 97 % 15 lf 995,2 hPa 0,0 l/m 0 min 2 min 0 W/m 23,0 km/h (4 Bft) 97,87 %
16.09.2015 07:04 12,4 C 12,2 C 11,1 C 97 % 15 lf 995,2 hPa 0,0 l/m 0 min 2 min 0 W/m 20,9 km/h (4 Bft) 100,00 %
16.09.2015 07:06 12,4 C 12,2 C 11,1 C 97 % 15 lf 995,2 hPa 0,0 l/m 0 min 2 min 0 W/m 23,0 km/h (4 Bft) 95,65 %
16.09.2015 07:08 12,4 C 12,2 C 11,1 C 97 % 15 lf 995,2 hPa 0,2 l/m 0 min 2 min 0 W/m 18,8 km/h (3 Bft) 100,00 %
16.09.2015 07:10 12,4 C 12,2 C 11,1 C 97 % 15 lf 995,3 hPa 0,0 l/m 0 min 2 min 0 W/m 16,7 km/h (3 Bft) 100,00 %
16.09.2015 07:12 12,4 C 12,2 C 11,1 C 97 % 15 lf 995,2 hPa 0,0 l/m 0 min 2 min 0 W/m 18,8 km/h (3 Bft) 97,87 %
16.09.2015 07:14 12,4 C 12,2 C 11,1 C 97 % 15 lf 995,2 hPa 0,0 l/m 0 min 2 min 0 W/m 25,1 km/h (4 Bft) 97,87 %
16.09.2015 07:16 12,4 C 12,2 C 11,1 C 97 % 15 lf 995,2 hPa 0,0 l/m 0 min 2 min 0 W/m 27,2 km/h (4 Bft) 100,00 %
16.09.2015 07:18 12,4 C 12,2 C 11,1 C 97 % 15 lf 995,3 hPa 0,0 l/m 0 min 2 min 0 W/m 31,4 km/h (5 Bft) 95,65 %
16.09.2015 07:20 12,4 C 12,2 C 11,1 C 97 % 15 lf 995,2 hPa 0,0 l/m 0 min 2 min 0 W/m 27,2 km/h (4 Bft) 100,00 %
16.09.2015 07:22 12,4 C 12,2 C 11,1 C 97 % 15 lf 995,2 hPa 0,0 l/m 0 min 2 min 0 W/m 20,9 km/h (4 Bft) 97,87 %
16.09.2015 07:24 12,5 C 12,2 C 11,1 C 97 % 15 lf 995,2 hPa 0,0 l/m 0 min 2 min 0 W/m 31,4 km/h (5 Bft) 97,87 %
16.09.2015 07:26 12,5 C 12,2 C 11,1 C 97 % 15 lf 995,1 hPa 0,0 l/m 0 min 2 min 0 W/m 18,8 km/h (3 Bft) 100,00 %
16.09.2015 07:28 12,5 C 12,2 C 11,1 C 97 % 15 lf 995,0 hPa 0,0 l/m 0 min 2 min 1 W/m 23,0 km/h (4 Bft) 97,87 %
16.09.2015 07:30 12,5 C 12,2 C 11,1 C 97 % 15 lf 994,9 hPa 0,2 l/m 0 min 2 min 5 W/m 29,3 km/h (5 Bft) 100,00 %
16.09.2015 07:32 12,5 C 12,2 C 11,1 C 97 % 15 lf 994,9 hPa 0,0 l/m 0 min 2 min 5 W/m 27,2 km/h (4 Bft) 93,62 %
16.09.2015 07:34 12,5 C 12,2 C 11,1 C 97 % 15 lf 994,9 hPa 0,0 l/m 0 min 2 min 5 W/m 29,3 km/h (5 Bft) 100,00 %
16.09.2015 07:36 12,6 C 12,2 C 11,1 C 97 % 15 lf 994,9 hPa 0,0 l/m 0 min 2 min 5 W/m 27,2 km/h (4 Bft) 97,87 %
16.09.2015 07:38 12,6 C 12,2 C 11,1 C 97 % 15 lf 994,8 hPa 0,0 l/m 0 min 2 min 5 W/m 20,9 km/h (4 Bft) 100,00 %
16.09.2015 07:40 12,6 C 12,2 C 11,1 C 97 % 15 lf 994,8 hPa 0,0 l/m 0 min 0 min 6 W/m 23,0 km/h (4 Bft) 100,00 %
16.09.2015 07:42 12,6 C 12,2 C 11,1 C 97 % 15 lf 994,8 hPa 0,0 l/m 0 min 2 min 10 W/m 25,1 km/h (4 Bft) 100,00 %
16.09.2015 07:44 12,6 C 12,2 C 11,1 C 97 % 15 lf 994,8 hPa 0,0 l/m 0 min 2 min 11 W/m 25,1 km/h (4 Bft) 100,00 %
16.09.2015 07:46 12,6 C 12,2 C 11,1 C 97 % 15 lf 994,8 hPa 0,0 l/m 0 min 2 min 12 W/m 29,3 km/h (5 Bft) 100,00 %
16.09.2015 07:48 12,6 C 12,2 C 11,1 C 97 % 15 lf 994,8 hPa 0,0 l/m 0 min 2 min 12 W/m 23,0 km/h (4 Bft) 100,00 %
16.09.2015 07:50 12,7 C 12,8 C 11,7 C 97 % 15 lf 994,8 hPa 0,0 l/m 0 min 0 min 12 W/m 23,0 km/h (4 Bft) 93,62 %
16.09.2015 07:52 12,7 C 12,8 C 11,7 C 97 % 15 lf 994,9 hPa 0,0 l/m 0 min 0 min 14 W/m 18,8 km/h (3 Bft) 97,83 %
16.09.2015 07:54 12,7 C 12,8 C 11,7 C 97 % 15 lf 994,9 hPa 0,0 l/m 0 min 2 min 13 W/m 27,2 km/h (4 Bft) 100,00 %
16.09.2015 07:56 12,7 C 12,8 C 11,7 C 97 % 15 lf 994,9 hPa 0,0 l/m 0 min 2 min 12 W/m 31,4 km/h (5 Bft) 97,87 %
16.09.2015 07:58 12,7 C 12,8 C 11,7 C 97 % 15 lf 994,9 hPa 0,0 l/m 0 min 2 min 14 W/m 29,3 km/h (5 Bft) 100,00 %
16.09.2015 08:00 12,7 C 12,8 C 11,7 C 97 % 15 lf 994,8 hPa 0,0 l/m 0 min 2 min 19 W/m 39,7 km/h (6 Bft) 100,00 %
16.09.2015 08:02 12,8 C 12,8 C 11,7 C 97 % 15 lf 994,8 hPa 0,0 l/m 0 min 2 min 24 W/m 31,4 km/h (5 Bft) 100,00 %
16.09.2015 08:04 12,8 C 12,8 C 11,7 C 97 % 15 lf 994,7 hPa 0,0 l/m 0 min 2 min 23 W/m 14,6 km/h (3 Bft) 100,00 %
16.09.2015 08:06 12,8 C 12,8 C 11,7 C 97 % 15 lf 994,7 hPa 0,0 l/m 0 min 0 min 19 W/m 35,6 km/h (5 Bft) 95,74 %
16.09.2015 08:08 12,8 C 12,8 C 11,7 C 97 % 15 lf 994,7 hPa 0,0 l/m 0 min 2 min 17 W/m 31,4 km/h (5 Bft) 95,74 %
16.09.2015 08:10 12,8 C 12,8 C 11,7 C 97 % 15 lf 994,6 hPa 0,0 l/m 0 min 2 min 15 W/m 25,1 km/h (4 Bft) 97,87 %
16.09.2015 08:12 12,8 C 12,8 C 11,7 C 97 % 15 lf 994,7 hPa 0,0 l/m 0 min 2 min 14 W/m 29,3 km/h (5 Bft) 95,74 %
16.09.2015 08:14 12,9 C 12,8 C 11,7 C 97 % 15 lf 994,6 hPa 0,0 l/m 0 min 2 min 14 W/m 27,2 km/h (4 Bft) 93,62 %
16.09.2015 08:16 12,9 C 12,8 C 11,7 C 97 % 15 lf 994,5 hPa 0,0 l/m 0 min 0 min 16 W/m 29,3 km/h (5 Bft) 93,48 %
16.09.2015 08:18 12,9 C 12,8 C 11,7 C 97 % 15 lf 994,6 hPa 0,0 l/m 0 min 0 min 16 W/m 18,8 km/h (3 Bft) 89,36 %
16.09.2015 08:20 12,9 C 12,8 C 11,7 C 97 % 15 lf 994,5 hPa 0,0 l/m 0 min 2 min 18 W/m 23,0 km/h (4 Bft) 91,49 %
16.09.2015 08:22 12,9 C 12,8 C 11,7 C 97 % 15 lf 994,5 hPa 0,0 l/m 0 min 0 min 21 W/m 31,4 km/h (5 Bft) 91,49 %
16.09.2015 08:24 12,9 C 12,8 C 11,7 C 97 % 15 lf 994,6 hPa 0,0 l/m 0 min 2 min 21 W/m 27,2 km/h (4 Bft) 89,36 %
16.09.2015 08:26 13,0 C 12,8 C 11,7 C 98 % 15 lf 994,5 hPa 0,0 l/m 0 min 2 min 26 W/m 27,2 km/h (4 Bft) 89,36 %
16.09.2015 08:28 13,0 C 12,8 C 11,7 C 98 % 15 lf 994,4 hPa 0,0 l/m 0 min 2 min 38 W/m 29,3 km/h (5 Bft) 89,13 %
16.09.2015 08:30 13,0 C 12,8 C 11,7 C 98 % 15 lf 994,4 hPa 0,0 l/m 0 min 2 min 49 W/m 33,5 km/h (5 Bft) 91,49 %
16.09.2015 08:32 13,1 C 12,8 C 11,7 C 98 % 15 lf 994,5 hPa 0,0 l/m 0 min 0 min 59 W/m 27,2 km/h (4 Bft) 89,36 %
16.09.2015 08:34 13,1 C 13,3 C 12,2 C 98 % 15 lf 994,5 hPa 0,0 l/m 0 min 0 min 61 W/m 31,4 km/h (5 Bft) 93,62 %
16.09.2015 08:36 13,1 C 13,3 C 12,2 C 98 % 15 lf 994,4 hPa 0,0 l/m 0 min 2 min 56 W/m 29,3 km/h (5 Bft) 89,36 %
16.09.2015 08:38 13,2 C 13,3 C 12,2 C 98 % 15 lf 994,4 hPa 0,0 l/m 0 min 2 min 53 W/m 31,4 km/h (5 Bft) 91,49 %
16.09.2015 08:40 13,2 C 13,3 C 12,2 C 97 % 15 lf 994,3 hPa 0,0 l/m 0 min 2 min 50 W/m 25,1 km/h (4 Bft) 89,13 %
16.09.2015 08:42 13,2 C 13,3 C 12,2 C 98 % 15 lf 994,3 hPa 0,0 l/m 0 min 2 min 40 W/m 25,1 km/h (4 Bft) 87,23 %
16.09.2015 08:44 13,2 C 13,3 C 12,2 C 98 % 15 lf 994,3 hPa 0,0 l/m 0 min 2 min 43 W/m 31,4 km/h (5 Bft) 89,36 %
16.09.2015 08:46 13,3 C 13,3 C 12,2 C 98 % 15 lf 994,4 hPa 0,0 l/m 0 min 2 min 49 W/m 25,1 km/h (4 Bft) 87,23 %
16.09.2015 08:48 13,3 C 13,3 C 12,2 C 98 % 15 lf 994,3 hPa 0,0 l/m 0 min 2 min 54 W/m 35,6 km/h (5 Bft) 87,23 %
16.09.2015 08:50 13,3 C 13,3 C 12,2 C 98 % 15 lf 994,3 hPa 0,0 l/m 0 min 0 min 63 W/m 29,3 km/h (5 Bft) 91,49 %
16.09.2015 08:52 13,3 C 13,3 C 12,2 C 98 % 15 lf 994,3 hPa 0,0 l/m 0 min 0 min 61 W/m 27,2 km/h (4 Bft) 93,48 %
16.09.2015 08:54 13,3 C 13,3 C 12,2 C 98 % 15 lf 994,3 hPa 0,0 l/m 0 min 2 min 46 W/m 29,3 km/h (5 Bft) 93,62 %
16.09.2015 08:56 13,4 C 13,3 C 12,2 C 98 % 15 lf 994,3 hPa 0,0 l/m 0 min 2 min 39 W/m 35,6 km/h (5 Bft) 93,62 %
16.09.2015 08:58 13,4 C 13,3 C 12,2 C 98 % 15 lf 994,3 hPa 0,0 l/m 0 min 2 min 39 W/m 18,8 km/h (3 Bft) 89,36 %
16.09.2015 09:00 13,4 C 13,3 C 12,2 C 98 % 15 lf 994,3 hPa 0,0 l/m 0 min 0 min 37 W/m 29,3 km/h (5 Bft) 93,62 %
16.09.2015 09:02 13,4 C 13,3 C 12,2 C 98 % 15 lf 994,3 hPa 0,0 l/m 0 min 0 min 39 W/m 23,0 km/h (4 Bft) 97,83 %
16.09.2015 09:04 13,4 C 13,3 C 12,2 C 98 % 15 lf 994,3 hPa 0,0 l/m 0 min 0 min 37 W/m 31,4 km/h (5 Bft) 95,74 %
16.09.2015 09:06 13,4 C 13,3 C 12,2 C 98 % 15 lf 994,3 hPa 0,0 l/m 0 min 2 min 34 W/m 29,3 km/h (5 Bft) 95,74 %
16.09.2015 09:08 13,5 C 13,3 C 12,2 C 98 % 15 lf 994,2 hPa 0,0 l/m 0 min 2 min 36 W/m 31,4 km/h (5 Bft) 97,87 %
16.09.2015 09:10 13,5 C 13,3 C 12,2 C 98 % 14 lf 994,2 hPa 0,0 l/m 0 min 2 min 47 W/m 27,2 km/h (4 Bft) 97,87 %
16.09.2015 09:12 13,5 C 13,3 C 12,2 C 98 % 13 lf 994,1 hPa 0,0 l/m 0 min 2 min 58 W/m 23,0 km/h (4 Bft) 97,87 %
16.09.2015 09:14 13,5 C 13,9 C 12,2 C 98 % 11 lf 994,1 hPa 0,0 l/m 0 min 0 min 61 W/m 18,8 km/h (3 Bft) 98,00 %
16.09.2015 09:16 13,6 C 13,9 C 12,2 C 98 % 9 lf 994,0 hPa 0,0 l/m 0 min 0 min 52 W/m 18,8 km/h (3 Bft) 100,00 %
16.09.2015 09:18 13,6 C 13,3 C 12,2 C 98 % 6 lf 994,1 hPa 0,0 l/m 0 min 0 min 42 W/m 29,3 km/h (5 Bft) 100,00 %
16.09.2015 09:20 13,6 C 13,9 C 12,2 C 98 % 3 lf 994,1 hPa 0,0 l/m 0 min 0 min 50 W/m 23,0 km/h (4 Bft) 100,00 %
16.09.2015 09:22 13,6 C 13,9 C 12,2 C 98 % 2 lf 994,1 hPa 0,0 l/m 0 min 0 min 48 W/m 23,0 km/h (4 Bft) 97,87 %
16.09.2015 09:24 13,6 C 13,9 C 12,2 C 98 % 1 lf 994,0 hPa 0,0 l/m 0 min 0 min 52 W/m 25,1 km/h (4 Bft) 97,87 %
16.09.2015 09:26 13,7 C 13,9 C 12,2 C 97 % 1 lf 994,1 hPa 0,0 l/m 0 min 0 min 62 W/m 33,5 km/h (5 Bft) 100,00 %
16.09.2015 09:28 13,7 C 13,9 C 12,2 C 97 % 1 lf 994,1 hPa 0,0 l/m 0 min 0 min 64 W/m 29,3 km/h (5 Bft) 97,87 %
16.09.2015 09:30 13,7 C 13,9 C 12,2 C 97 % 1 lf 994,0 hPa 0,0 l/m 0 min 0 min 69 W/m 23,0 km/h (4 Bft) 100,00 %
16.09.2015 09:32 13,7 C 13,9 C 12,2 C 98 % 1 lf 994,0 hPa 0,0 l/m 0 min 0 min 82 W/m 25,1 km/h (4 Bft) 100,00 %
16.09.2015 09:34 13,7 C 13,9 C 12,2 C 98 % 0 lf 994,0 hPa 0,0 l/m 0 min 0 min 94 W/m 25,1 km/h (4 Bft) 97,87 %
16.09.2015 09:36 13,8 C 13,9 C 12,8 C 98 % 0 lf 994,0 hPa 0,0 l/m 0 min 0 min 120 W/m 27,2 km/h (4 Bft) 100,00 %
16.09.2015 09:38 13,8 C 14,4 C 12,8 C 98 % 0 lf 994,1 hPa 0,0 l/m 0 min 0 min 148 W/m 31,4 km/h (5 Bft) 95,74 %
16.09.2015 09:40 13,9 C 15,0 C 12,8 C 98 % 0 lf 994,0 hPa 0,0 l/m 2 min 0 min 206 W/m 29,3 km/h (5 Bft) 100,00 %
16.09.2015 09:42 13,9 C 15,6 C 13,3 C 97 % 0 lf 994,0 hPa 0,0 l/m 2 min 0 min 290 W/m 27,2 km/h (4 Bft) 100,00 %
16.09.2015 09:44 14,1 C 15,0 C 13,3 C 97 % 0 lf 994,0 hPa 0,0 l/m 2 min 0 min 285 W/m 25,1 km/h (4 Bft) 100,00 %
16.09.2015 09:46 14,2 C 15,0 C 13,3 C 98 % 0 lf 994,1 hPa 0,0 l/m 0 min 0 min 179 W/m 33,5 km/h (5 Bft) 100,00 %
16.09.2015 09:48 14,2 C 15,0 C 13,3 C 98 % 0 lf 994,0 hPa 0,0 l/m 0 min 0 min 166 W/m 27,2 km/h (4 Bft) 100,00 %
16.09.2015 09:50 14,2 C 14,4 C 12,8 C 98 % 0 lf 994,1 hPa 0,0 l/m 0 min 0 min 170 W/m 35,6 km/h (5 Bft) 100,00 %
16.09.2015 09:52 14,2 C 15,0 C 13,3 C 98 % 0 lf 994,1 hPa 0,0 l/m 0 min 0 min 165 W/m 31,4 km/h (5 Bft) 100,00 %
16.09.2015 09:54 14,3 C 15,0 C 13,3 C 98 % 0 lf 994,1 hPa 0,0 l/m 0 min 0 min 196 W/m 31,4 km/h (5 Bft) 97,87 %
16.09.2015 09:56 14,3 C 15,0 C 13,3 C 97 % 0 lf 994,0 hPa 0,0 l/m 2 min 0 min 214 W/m 33,5 km/h (5 Bft) 95,74 %
16.09.2015 09:58 14,4 C 15,0 C 13,3 C 97 % 0 lf 994,0 hPa 0,0 l/m 2 min 2 min 216 W/m 29,3 km/h (5 Bft) 100,00 %
16.09.2015 10:00 14,4 C 15,0 C 13,3 C 97 % 0 lf 994,0 hPa 0,0 l/m 2 min 2 min 209 W/m 29,3 km/h (5 Bft) 97,87 %
16.09.2015 10:02 14,5 C 15,0 C 13,3 C 97 % 0 lf 994,1 hPa 0,0 l/m 0 min 0 min 200 W/m 25,1 km/h (4 Bft) 100,00 %
16.09.2015 10:04 14,6 C 15,0 C 13,3 C 97 % 0 lf 994,2 hPa 0,0 l/m 0 min 0 min 182 W/m 29,3 km/h (5 Bft) 100,00 %
16.09.2015 10:06 14,6 C 15,0 C 13,3 C 97 % 0 lf 994,1 hPa 0,0 l/m 0 min 2 min 166 W/m 25,1 km/h (4 Bft) 100,00 %
16.09.2015 10:08 14,6 C 15,0 C 13,3 C 97 % 0 lf 994,0 hPa 0,0 l/m 0 min 0 min 154 W/m 27,2 km/h (4 Bft) 95,74 %
16.09.2015 10:10 14,7 C 15,0 C 13,3 C 97 % 0 lf 994,1 hPa 0,0 l/m 0 min 2 min 151 W/m 33,5 km/h (5 Bft) 100,00 %
16.09.2015 10:12 14,7 C 15,0 C 13,3 C 97 % 0 lf 994,0 hPa 0,0 l/m 0 min 0 min 163 W/m 37,7 km/h (5 Bft) 100,00 %
16.09.2015 10:14 14,7 C 15,0 C 13,3 C 97 % 0 lf 994,1 hPa 0,0 l/m 0 min 0 min 177 W/m 29,3 km/h (5 Bft) 97,83 %
16.09.2015 10:16 14,7 C 15,0 C 13,3 C 97 % 0 lf 994,0 hPa 0,0 l/m 0 min 2 min 180 W/m 37,7 km/h (5 Bft) 97,87 %
16.09.2015 10:18 14,8 C 15,0 C 13,3 C 97 % 0 lf 994,0 hPa 0,0 l/m 0 min 0 min 176 W/m 25,1 km/h (4 Bft) 97,87 %
16.09.2015 10:20 14,8 C 15,0 C 13,3 C 96 % 0 lf 994,1 hPa 0,0 l/m 0 min 0 min 164 W/m 31,4 km/h (5 Bft) 95,74 %
16.09.2015 10:22 14,8 C 15,0 C 13,3 C 96 % 0 lf 994,0 hPa 0,0 l/m 0 min 0 min 150 W/m 33,5 km/h (5 Bft) 97,87 %
16.09.2015 10:24 14,9 C 15,0 C 13,3 C 96 % 0 lf 994,0 hPa 0,0 l/m 0 min 0 min 139 W/m 31,4 km/h (5 Bft) 95,65 %
16.09.2015 10:26 14,9 C 15,0 C 13,3 C 96 % 0 lf 994,1 hPa 0,0 l/m 0 min 0 min 135 W/m 33,5 km/h (5 Bft) 95,74 %
16.09.2015 10:28 14,9 C 15,0 C 13,3 C 96 % 0 lf 994,1 hPa 0,0 l/m 0 min 0 min 128 W/m 31,4 km/h (5 Bft) 95,74 %
16.09.2015 10:30 14,9 C 15,0 C 13,3 C 96 % 0 lf 994,0 hPa 0,0 l/m 0 min 0 min 121 W/m 23,0 km/h (4 Bft) 95,74 %
16.09.2015 10:32 14,9 C 15,0 C 13,3 C 95 % 0 lf 994,0 hPa 0,0 l/m 0 min 0 min 121 W/m 37,7 km/h (5 Bft) 97,87 %
16.09.2015 10:34 14,9 C 15,0 C 13,3 C 95 % 0 lf 994,0 hPa 0,0 l/m 0 min 0 min 131 W/m 29,3 km/h (5 Bft) 97,87 %
16.09.2015 10:36 15,0 C 15,0 C 13,3 C 95 % 0 lf 994,0 hPa 0,0 l/m 0 min 0 min 146 W/m 31,4 km/h (5 Bft) 97,83 %
16.09.2015 10:38 15,0 C 15,0 C 13,3 C 95 % 0 lf 994,0 hPa 0,0 l/m 0 min 0 min 163 W/m 25,1 km/h (4 Bft) 100,00 %
16.09.2015 10:40 15,1 C 15,6 C 13,3 C 95 % 0 lf 993,9 hPa 0,0 l/m 0 min 0 min 181 W/m 23,0 km/h (4 Bft) 91,49 %
16.09.2015 10:42 15,1 C 15,6 C 13,9 C 95 % 0 lf 993,9 hPa 0,0 l/m 0 min 0 min 195 W/m 23,0 km/h (4 Bft) 95,74 %
16.09.2015 10:44 15,1 C 15,6 C 13,3 C 95 % 0 lf 993,9 hPa 0,0 l/m 0 min 0 min 189 W/m 27,2 km/h (4 Bft) 97,87 %
16.09.2015 10:46 15,2 C 15,6 C 13,9 C 95 % 0 lf 994,0 hPa 0,0 l/m 0 min 0 min 174 W/m 29,3 km/h (5 Bft) 97,87 %
16.09.2015 10:48 15,2 C 15,6 C 13,9 C 95 % 0 lf 994,0 hPa 0,0 l/m 0 min 0 min 165 W/m 27,2 km/h (4 Bft) 100,00 %
16.09.2015 10:50 15,2 C 15,6 C 13,9 C 95 % 0 lf 994,0 hPa 0,0 l/m 0 min 0 min 162 W/m 29,3 km/h (5 Bft) 97,87 %
16.09.2015 10:52 15,2 C 15,6 C 13,9 C 95 % 0 lf 994,0 hPa 0,0 l/m 0 min 0 min 160 W/m 25,1 km/h (4 Bft) 100,00 %
16.09.2015 10:54 15,3 C 16,1 C 13,9 C 95 % 0 lf 994,0 hPa 0,0 l/m 0 min 0 min 159 W/m 27,2 km/h (4 Bft) 100,00 %
16.09.2015 10:56 15,3 C 16,1 C 13,9 C 95 % 0 lf 994,0 hPa 0,0 l/m 0 min 0 min 144 W/m 18,8 km/h (3 Bft) 97,87 %
16.09.2015 10:58 15,4 C 16,1 C 14,4 C 94 % 0 lf 994,0 hPa 0,0 l/m 0 min 0 min 135 W/m 31,4 km/h (5 Bft) 100,00 %
16.09.2015 11:00 15,4 C 16,1 C 14,4 C 94 % 0 lf 994,1 hPa 0,0 l/m 0 min 0 min 128 W/m 29,3 km/h (5 Bft) 97,83 %
16.09.2015 11:02 15,4 C 16,1 C 14,4 C 94 % 0 lf 994,0 hPa 0,0 l/m 0 min 0 min 121 W/m 37,7 km/h (5 Bft) 100,00 %
16.09.2015 11:04 15,4 C 16,1 C 14,4 C 94 % 0 lf 994,0 hPa 0,0 l/m 0 min 0 min 122 W/m 29,3 km/h (5 Bft) 95,74 %
16.09.2015 11:06 15,5 C 16,1 C 14,4 C 94 % 0 lf 994,0 hPa 0,0 l/m 0 min 0 min 124 W/m 27,2 km/h (4 Bft) 97,87 %
16.09.2015 11:08 15,5 C 16,1 C 14,4 C 94 % 0 lf 994,0 hPa 0,0 l/m 0 min 0 min 121 W/m 25,1 km/h (4 Bft) 97,87 %
16.09.2015 11:10 15,6 C 16,7 C 14,4 C 94 % 0 lf 994,0 hPa 0,0 l/m 0 min 0 min 127 W/m 20,9 km/h (4 Bft) 95,74 %
16.09.2015 11:12 15,6 C 16,7 C 14,4 C 94 % 0 lf 994,0 hPa 0,0 l/m 0 min 0 min 139 W/m 25,1 km/h (4 Bft) 95,65 %
16.09.2015 11:14 15,6 C 16,7 C 15,0 C 94 % 0 lf 994,0 hPa 0,0 l/m 0 min 0 min 139 W/m 29,3 km/h (5 Bft) 93,62 %
16.09.2015 11:16 15,7 C 16,7 C 15,0 C 94 % 0 lf 994,0 hPa 0,0 l/m 0 min 0 min 128 W/m 20,9 km/h (4 Bft) 91,49 %
16.09.2015 11:18 15,7 C 16,7 C 15,0 C 94 % 0 lf 994,0 hPa 0,0 l/m 0 min 0 min 111 W/m 27,2 km/h (4 Bft) 91,49 %
16.09.2015 11:20 15,7 C 16,7 C 15,0 C 94 % 0 lf 994,0 hPa 0,0 l/m 0 min 0 min 95 W/m 25,1 km/h (4 Bft) 95,74 %
16.09.2015 11:22 15,8 C 16,1 C 14,4 C 93 % 0 lf 994,0 hPa 0,0 l/m 0 min 2 min 87 W/m 20,9 km/h (4 Bft) 95,74 %
16.09.2015 11:24 15,8 C 16,1 C 14,4 C 93 % 3 lf 994,0 hPa 0,0 l/m 0 min 2 min 80 W/m 23,0 km/h (4 Bft) 95,65 %
16.09.2015 11:26 15,8 C 15,6 C 14,4 C 93 % 4 lf 993,9 hPa 0,0 l/m 0 min 2 min 63 W/m 29,3 km/h (5 Bft) 93,62 %
16.09.2015 11:28 15,8 C 15,6 C 13,9 C 94 % 4 lf 993,9 hPa 0,0 l/m 0 min 2 min 48 W/m 18,8 km/h (3 Bft) 93,62 %
16.09.2015 11:30 15,8 C 15,0 C 13,9 C 94 % 12 lf 993,9 hPa 0,0 l/m 0 min 2 min 48 W/m 23,0 km/h (4 Bft) 95,74 %
16.09.2015 11:32 15,8 C 15,0 C 13,9 C 94 % 12 lf 993,9 hPa 0,0 l/m 0 min 2 min 47 W/m 18,8 km/h (3 Bft) 93,62 %
16.09.2015 11:34 15,9 C 15,0 C 13,9 C 94 % 13 lf 993,7 hPa 0,0 l/m 0 min 2 min 54 W/m 25,1 km/h (4 Bft) 91,49 %
16.09.2015 11:36 15,8 C 15,0 C 13,9 C 94 % 13 lf 993,7 hPa 0,2 l/m 0 min 2 min 60 W/m 16,7 km/h (3 Bft) 93,48 %
16.09.2015 11:38 15,8 C 15,0 C 13,9 C 94 % 13 lf 993,6 hPa 0,0 l/m 0 min 2 min 72 W/m 18,8 km/h (3 Bft) 95,74 %
16.09.2015 11:40 15,8 C 15,0 C 13,9 C 94 % 13 lf 993,6 hPa 0,0 l/m 0 min 2 min 112 W/m 23,0 km/h (4 Bft) 95,74 %
16.09.2015 11:42 15,9 C 15,6 C 14,4 C 94 % 12 lf 993,6 hPa 0,0 l/m 0 min 2 min 169 W/m 20,9 km/h (4 Bft) 95,74 %
16.09.2015 11:44 15,9 C 15,6 C 14,4 C 94 % 11 lf 993,5 hPa 0,0 l/m 0 min 0 min 182 W/m 27,2 km/h (4 Bft) 95,74 %
16.09.2015 11:46 15,9 C 15,6 C 14,4 C 94 % 7 lf 993,6 hPa 0,0 l/m 0 min 2 min 184 W/m 29,3 km/h (5 Bft) 95,65 %
16.09.2015 11:48 15,8 C 15,6 C 14,4 C 94 % 4 lf 993,5 hPa 0,0 l/m 0 min 2 min 154 W/m 29,3 km/h (5 Bft) 93,62 %
16.09.2015 11:50 15,8 C 15,6 C 13,9 C 94 % 5 lf 993,6 hPa 0,0 l/m 0 min 2 min 93 W/m 23,0 km/h (4 Bft) 95,74 %
16.09.2015 11:52 15,8 C 15,6 C 13,9 C 94 % 5 lf 993,6 hPa 0,0 l/m 0 min 2 min 119 W/m 27,2 km/h (4 Bft) 92,00 %
16.09.2015 11:54 15,8 C 15,6 C 13,9 C 94 % 5 lf 993,5 hPa 0,0 l/m 0 min 2 min 124 W/m 27,2 km/h (4 Bft) 97,87 %
16.09.2015 11:56 15,8 C 15,0 C 13,9 C 94 % 6 lf 993,5 hPa 0,0 l/m 0 min 2 min 98 W/m 20,9 km/h (4 Bft) 95,74 %
16.09.2015 11:58 15,7 C 15,0 C 13,9 C 94 % 4 lf 993,5 hPa 0,0 l/m 0 min 2 min 105 W/m 25,1 km/h (4 Bft) 95,74 %
16.09.2015 12:00 15,7 C 15,0 C 13,9 C 95 % 4 lf 993,6 hPa 0,0 l/m 0 min 2 min 114 W/m 27,2 km/h (4 Bft) 95,65 %
16.09.2015 12:02 15,7 C 15,0 C 13,9 C 95 % 6 lf 993,6 hPa 0,0 l/m 0 min 2 min 121 W/m 27,2 km/h (4 Bft) 97,87 %
16.09.2015 12:05 15,7 C 15,0 C 13,9 C 95 % 4 lf 993,6 hPa 0,0 l/m 0 min 2 min 98 W/m 29,3 km/h (5 Bft) 97,87 %
16.09.2015 12:06 15,7 C 15,0 C 13,9 C 95 % 4 lf 993,6 hPa 0,0 l/m 0 min 1 min 113 W/m 29,3 km/h (5 Bft) 92,55 %
16.09.2015 12:08 15,7 C 15,0 C 13,9 C 95 % 3 lf 993,6 hPa 0,0 l/m 0 min 2 min 98 W/m 23,0 km/h (4 Bft) 95,74 %
16.09.2015 12:10 15,6 C 15,0 C 13,9 C 95 % 10 lf 993,5 hPa 0,2 l/m 0 min 2 min 101 W/m 25,1 km/h (4 Bft) 95,74 %
16.09.2015 12:12 15,6 C 15,0 C 13,9 C 95 % 10 lf 993,6 hPa 0,0 l/m 0 min 2 min 95 W/m 35,6 km/h (5 Bft) 93,48 %
16.09.2015 12:14 15,6 C 15,0 C 13,9 C 95 % 13 lf 993,6 hPa 0,0 l/m 0 min 2 min 92 W/m 25,1 km/h (4 Bft) 91,49 %
16.09.2015 12:16 15,6 C 15,0 C 13,9 C 95 % 13 lf 993,5 hPa 0,0 l/m 0 min 2 min 95 W/m 29,3 km/h (5 Bft) 95,74 %
16.09.2015 12:18 15,6 C 15,0 C 13,9 C 95 % 14 lf 993,5 hPa 0,2 l/m 0 min 2 min 107 W/m 23,0 km/h (4 Bft) 93,62 %
16.09.2015 12:20 15,6 C 15,0 C 13,9 C 95 % 14 lf 993,5 hPa 0,0 l/m 0 min 2 min 124 W/m 23,0 km/h (4 Bft) 95,74 %
16.09.2015 12:22 15,6 C 15,0 C 13,9 C 95 % 14 lf 993,5 hPa 0,0 l/m 0 min 2 min 139 W/m 16,7 km/h (3 Bft) 93,62 %
16.09.2015 12:24 15,6 C 15,0 C 13,9 C 95 % 14 lf 993,5 hPa 0,0 l/m 0 min 2 min 135 W/m 20,9 km/h (4 Bft) 95,65 %
16.09.2015 12:26 15,6 C 15,6 C 13,9 C 95 % 14 lf 993,3 hPa 0,0 l/m 0 min 2 min 128 W/m 27,2 km/h (4 Bft) 95,74 %
16.09.2015 12:28 15,6 C 15,0 C 13,9 C 95 % 14 lf 993,3 hPa 0,0 l/m 0 min 2 min 132 W/m 20,9 km/h (4 Bft) 95,74 %
16.09.2015 12:30 15,6 C 15,0 C 13,9 C 95 % 14 lf 993,2 hPa 0,0 l/m 0 min 2 min 126 W/m 31,4 km/h (5 Bft) 95,74 %
16.09.2015 12:32 15,6 C 15,6 C 13,9 C 95 % 13 lf 993,2 hPa 0,0 l/m 0 min 2 min 128 W/m 27,2 km/h (4 Bft) 93,62 %
16.09.2015 12:34 15,6 C 15,0 C 13,9 C 95 % 13 lf 993,2 hPa 0,0 l/m 0 min 2 min 126 W/m 35,6 km/h (5 Bft) 93,62 %
16.09.2015 12:36 15,6 C 15,0 C 13,9 C 95 % 12 lf 993,3 hPa 0,0 l/m 0 min 2 min 118 W/m 25,1 km/h (4 Bft) 95,65 %
16.09.2015 12:38 15,6 C 15,0 C 13,9 C 95 % 12 lf 993,4 hPa 0,0 l/m 0 min 2 min 114 W/m 25,1 km/h (4 Bft) 95,74 %
16.09.2015 12:40 15,6 C 15,0 C 13,9 C 96 % 11 lf 993,3 hPa 0,0 l/m 0 min 2 min 116 W/m 25,1 km/h (4 Bft) 95,74 %
16.09.2015 12:42 15,6 C 15,0 C 13,9 C 96 % 11 lf 993,2 hPa 0,0 l/m 0 min 2 min 121 W/m 33,5 km/h (5 Bft) 95,74 %
16.09.2015 12:44 15,6 C 15,0 C 13,9 C 96 % 9 lf 993,2 hPa 0,0 l/m 0 min 2 min 125 W/m 29,3 km/h (5 Bft) 97,87 %
16.09.2015 12:46 15,6 C 15,0 C 13,9 C 96 % 7 lf 993,2 hPa 0,0 l/m 0 min 2 min 132 W/m 25,1 km/h (4 Bft) 97,87 %
16.09.2015 12:48 15,6 C 15,0 C 13,9 C 96 % 4 lf 993,2 hPa 0,0 l/m 0 min 2 min 137 W/m 29,3 km/h (5 Bft) 97,83 %
16.09.2015 12:50 15,6 C 15,6 C 13,9 C 96 % 4 lf 993,2 hPa 0,0 l/m 0 min 2 min 145 W/m 31,4 km/h (5 Bft) 97,87 %
16.09.2015 12:52 15,6 C 15,6 C 13,9 C 96 % 3 lf 993,2 hPa 0,0 l/m 0 min 2 min 142 W/m 29,3 km/h (5 Bft) 97,87 %
16.09.2015 12:54 15,6 C 15,6 C 13,9 C 96 % 2 lf 993,1 hPa 0,0 l/m 0 min 2 min 130 W/m 27,2 km/h (4 Bft) 97,87 %
16.09.2015 12:56 15,6 C 15,6 C 13,9 C 96 % 1 lf 993,2 hPa 0,0 l/m 0 min 2 min 128 W/m 29,3 km/h (5 Bft) 97,96 %
16.09.2015 12:58 15,7 C 15,6 C 13,9 C 96 % 1 lf 993,1 hPa 0,0 l/m 0 min 2 min 144 W/m 37,7 km/h (5 Bft) 93,62 %
16.09.2015 13:00 15,7 C 15,6 C 14,4 C 96 % 0 lf 993,1 hPa 0,0 l/m 0 min 2 min 151 W/m 37,7 km/h (5 Bft) 95,74 %
16.09.2015 13:02 15,7 C 15,6 C 14,4 C 96 % 0 lf 993,1 hPa 0,0 l/m 0 min 2 min 144 W/m 25,1 km/h (4 Bft) 100,00 %
16.09.2015 13:04 15,7 C 15,6 C 14,4 C 96 % 0 lf 993,1 hPa 0,0 l/m 0 min 2 min 120 W/m 27,2 km/h (4 Bft) 100,00 %
16.09.2015 13:06 15,7 C 15,6 C 14,4 C 96 % 1 lf 993,1 hPa 0,0 l/m 0 min 0 min 100 W/m 29,3 km/h (5 Bft) 100,00 %
16.09.2015 13:08 15,7 C 15,6 C 14,4 C 96 % 0 lf 993,1 hPa 0,0 l/m 0 min 2 min 114 W/m 25,1 km/h (4 Bft) 97,83 %
16.09.2015 13:10 15,7 C 15,6 C 14,4 C 96 % 0 lf 993,1 hPa 0,0 l/m 0 min 2 min 121 W/m 27,2 km/h (4 Bft) 100,00 %
16.09.2015 13:12 15,8 C 15,6 C 14,4 C 96 % 0 lf 993,2 hPa 0,0 l/m 0 min 2 min 125 W/m 31,4 km/h (5 Bft) 97,87 %
16.09.2015 13:14 15,8 C 15,6 C 14,4 C 96 % 0 lf 993,2 hPa 0,0 l/m 0 min 2 min 116 W/m 31,4 km/h (5 Bft) 97,87 %
16.09.2015 13:16 15,8 C 15,6 C 14,4 C 96 % 0 lf 993,1 hPa 0,0 l/m 0 min 2 min 100 W/m 29,3 km/h (5 Bft) 93,62 %
16.09.2015 13:18 15,8 C 15,6 C 14,4 C 96 % 0 lf 993,1 hPa 0,0 l/m 0 min 2 min 102 W/m 33,5 km/h (5 Bft) 100,00 %
16.09.2015 13:20 15,8 C 15,6 C 14,4 C 96 % 1 lf 993,1 hPa 0,0 l/m 0 min 2 min 97 W/m 37,7 km/h (5 Bft) 100,00 %
16.09.2015 13:22 15,8 C 15,6 C 14,4 C 96 % 0 lf 993,1 hPa 0,0 l/m 0 min 2 min 93 W/m 25,1 km/h (4 Bft) 100,00 %
16.09.2015 13:24 15,8 C 15,6 C 14,4 C 96 % 0 lf 993,0 hPa 0,0 l/m 0 min 2 min 91 W/m 27,2 km/h (4 Bft) 100,00 %
16.09.2015 13:26 15,8 C 15,6 C 14,4 C 96 % 0 lf 993,0 hPa 0,0 l/m 0 min 2 min 94 W/m 27,2 km/h (4 Bft) 97,87 %
16.09.2015 13:28 15,8 C 15,6 C 14,4 C 96 % 3 lf 993,0 hPa 0,0 l/m 0 min 2 min 109 W/m 25,1 km/h (4 Bft) 100,00 %
16.09.2015 13:30 15,9 C 15,6 C 14,4 C 96 % 3 lf 992,9 hPa 0,0 l/m 0 min 2 min 139 W/m 29,3 km/h (5 Bft) 97,87 %
16.09.2015 13:32 15,9 C 15,6 C 14,4 C 96 % 3 lf 992,9 hPa 0,2 l/m 0 min 2 min 180 W/m 25,1 km/h (4 Bft) 100,00 %
16.09.2015 13:34 15,9 C 15,6 C 14,4 C 96 % 3 lf 992,9 hPa 0,0 l/m 0 min 2 min 216 W/m 23,0 km/h (4 Bft) 100,00 %
16.09.2015 13:36 15,9 C 15,6 C 14,4 C 97 % 2 lf 992,8 hPa 0,0 l/m 0 min 2 min 224 W/m 29,3 km/h (5 Bft) 100,00 %
16.09.2015 13:38 16,0 C 15,6 C 15,0 C 96 % 1 lf 992,9 hPa 0,0 l/m 0 min 2 min 213 W/m 27,2 km/h (4 Bft) 97,87 %
16.09.2015 13:40 16,0 C 16,1 C 15,0 C 96 % 0 lf 992,9 hPa 0,0 l/m 0 min 2 min 196 W/m 25,1 km/h (4 Bft) 97,87 %
16.09.2015 13:42 16,0 C 16,1 C 14,4 C 96 % 0 lf 992,8 hPa 0,0 l/m 0 min 0 min 185 W/m 29,3 km/h (5 Bft) 100,00 %
16.09.2015 13:44 16,1 C 16,1 C 15,0 C 96 % 0 lf 992,9 hPa 0,0 l/m 0 min 2 min 188 W/m 27,2 km/h (4 Bft) 100,00 %
16.09.2015 13:46 16,1 C 16,1 C 15,0 C 96 % 1 lf 992,9 hPa 0,0 l/m 0 min 2 min 217 W/m 27,2 km/h (4 Bft) 97,87 %
16.09.2015 13:48 16,1 C 16,1 C 15,0 C 96 % 3 lf 992,9 hPa 0,0 l/m 0 min 2 min 257 W/m 35,6 km/h (5 Bft) 97,87 %
16.09.2015 13:50 16,1 C 16,1 C 15,0 C 96 % 1 lf 993,0 hPa 0,0 l/m 0 min 2 min 306 W/m 35,6 km/h (5 Bft) 97,87 %
16.09.2015 13:52 16,2 C 16,1 C 15,0 C 96 % 1 lf 992,9 hPa 0,0 l/m 0 min 2 min 302 W/m 31,4 km/h (5 Bft) 97,87 %
16.09.2015 13:54 16,2 C 16,1 C 15,0 C 97 % 1 lf 992,9 hPa 0,2 l/m 0 min 2 min 290 W/m 27,2 km/h (4 Bft) 100,00 %
16.09.2015 13:56 16,3 C 16,7 C 15,6 C 97 % 0 lf 992,9 hPa 0,0 l/m 0 min 2 min 290 W/m 31,4 km/h (5 Bft) 100,00 %
16.09.2015 13:58 16,3 C 16,1 C 15,0 C 97 % 0 lf 993,0 hPa 0,0 l/m 0 min 0 min 244 W/m 27,2 km/h (4 Bft) 95,74 %
16.09.2015 14:00 16,3 C 16,1 C 15,0 C 97 % 1 lf 992,9 hPa 0,0 l/m 0 min 0 min 198 W/m 23,0 km/h (4 Bft) 97,87 %
16.09.2015 14:02 16,4 C 16,1 C 15,0 C 97 % 0 lf 992,9 hPa 0,0 l/m 0 min 0 min 177 W/m 25,1 km/h (4 Bft) 95,74 %
16.09.2015 14:04 16,4 C 16,1 C 15,0 C 97 % 0 lf 992,9 hPa 0,0 l/m 0 min 0 min 182 W/m 20,9 km/h (4 Bft) 91,49 %
16.09.2015 14:06 16,4 C 16,1 C 15,0 C 97 % 0 lf 992,8 hPa 0,0 l/m 0 min 0 min 148 W/m 25,1 km/h (4 Bft) 93,48 %
16.09.2015 14:08 16,4 C 16,1 C 15,0 C 97 % 0 lf 992,8 hPa 0,0 l/m 0 min 0 min 97 W/m 23,0 km/h (4 Bft) 93,62 %
16.09.2015 14:10 16,3 C 15,6 C 14,4 C 96 % 0 lf 992,8 hPa 0,0 l/m 0 min 2 min 85 W/m 23,0 km/h (4 Bft) 89,36 %
16.09.2015 14:12 16,3 C 15,6 C 14,4 C 97 % 1 lf 992,8 hPa 0,0 l/m 0 min 2 min 85 W/m 33,5 km/h (5 Bft) 93,62 %
16.09.2015 14:14 16,3 C 15,6 C 14,4 C 96 % 0 lf 992,8 hPa 0,0 l/m 0 min 2 min 84 W/m 29,3 km/h (5 Bft) 93,62 %
16.09.2015 14:16 16,3 C 15,6 C 14,4 C 96 % 2 lf 992,7 hPa 0,0 l/m 0 min 2 min 65 W/m 25,1 km/h (4 Bft) 91,49 %
16.09.2015 14:18 16,2 C 15,6 C 14,4 C 96 % 5 lf 992,7 hPa 0,0 l/m 0 min 2 min 52 W/m 25,1 km/h (4 Bft) 93,48 %
16.09.2015 14:20 16,2 C 15,6 C 14,4 C 96 % 7 lf 992,8 hPa 0,0 l/m 0 min 2 min 54 W/m 25,1 km/h (4 Bft) 93,62 %
16.09.2015 14:22 16,2 C 15,6 C 14,4 C 96 % 6 lf 992,7 hPa 0,0 l/m 0 min 2 min 44 W/m 20,9 km/h (4 Bft) 91,49 %
16.09.2015 14:24 16,2 C 15,6 C 14,4 C 96 % 7 lf 992,9 hPa 0,4 l/m 0 min 2 min 22 W/m 25,1 km/h (4 Bft) 91,49 %
16.09.2015 14:26 16,2 C 15,6 C 14,4 C 96 % 15 lf 992,7 hPa 0,4 l/m 0 min 2 min 19 W/m 18,8 km/h (3 Bft) 85,11 %
16.09.2015 14:28 16,1 C 15,6 C 14,4 C 96 % 15 lf 992,7 hPa 0,2 l/m 0 min 2 min 28 W/m 23,0 km/h (4 Bft) 93,48 %
16.09.2015 14:30 16,1 C 15,6 C 14,4 C 96 % 15 lf 992,7 hPa 0,2 l/m 0 min 2 min 28 W/m 25,1 km/h (4 Bft) 91,49 %
16.09.2015 14:32 16,1 C 15,6 C 14,4 C 96 % 15 lf 992,7 hPa 0,0 l/m 0 min 2 min 28 W/m 16,7 km/h (3 Bft) 91,67 %
16.09.2015 14:34 16,1 C 15,6 C 14,4 C 96 % 15 lf 992,6 hPa 0,2 l/m 0 min 2 min 29 W/m 23,0 km/h (4 Bft) 93,62 %
16.09.2015 14:36 16,1 C 15,6 C 14,4 C 96 % 15 lf 992,7 hPa 0,0 l/m 0 min 2 min 36 W/m 18,8 km/h (3 Bft) 93,48 %
16.09.2015 14:38 16,0 C 15,6 C 14,4 C 96 % 15 lf 992,7 hPa 0,4 l/m 0 min 2 min 48 W/m 20,9 km/h (4 Bft) 95,74 %
16.09.2015 14:40 16,0 C 15,6 C 14,4 C 96 % 15 lf 992,6 hPa 0,2 l/m 0 min 2 min 66 W/m 25,1 km/h (4 Bft) 95,74 %
16.09.2015 14:42 16,0 C 15,6 C 14,4 C 96 % 15 lf 992,7 hPa 0,2 l/m 0 min 2 min 74 W/m 23,0 km/h (4 Bft) 93,62 %
16.09.2015 14:44 16,0 C 15,6 C 14,4 C 96 % 15 lf 992,8 hPa 0,0 l/m 0 min 2 min 82 W/m 31,4 km/h (5 Bft) 91,49 %
16.09.2015 14:46 16,0 C 15,6 C 14,4 C 96 % 15 lf 992,7 hPa 0,0 l/m 0 min 2 min 116 W/m 31,4 km/h (5 Bft) 95,74 %
16.09.2015 14:48 16,0 C 15,6 C 14,4 C 96 % 15 lf 992,8 hPa 0,0 l/m 0 min 2 min 122 W/m 23,0 km/h (4 Bft) 97,83 %
16.09.2015 14:50 16,0 C 15,6 C 14,4 C 96 % 15 lf 992,8 hPa 0,0 l/m 0 min 2 min 113 W/m 20,9 km/h (4 Bft) 97,87 %
16.09.2015 14:52 16,1 C 15,6 C 14,4 C 97 % 15 lf 992,8 hPa 0,0 l/m 0 min 2 min 92 W/m 20,9 km/h (4 Bft) 95,74 %
16.09.2015 14:54 16,1 C 15,6 C 14,4 C 97 % 15 lf 992,8 hPa 0,0 l/m 0 min 2 min 58 W/m 14,6 km/h (3 Bft) 97,87 %
16.09.2015 14:56 16,1 C 15,6 C 14,4 C 97 % 15 lf 992,8 hPa 0,2 l/m 0 min 2 min 41 W/m 18,8 km/h (3 Bft) 100,00 %
16.09.2015 14:58 16,0 C 15,6 C 14,4 C 97 % 15 lf 992,7 hPa 0,0 l/m 0 min 2 min 39 W/m 16,7 km/h (3 Bft) 97,87 %
16.09.2015 15:00 16,0 C 15,6 C 14,4 C 97 % 15 lf 992,6 hPa 0,0 l/m 0 min 2 min 40 W/m 23,0 km/h (4 Bft) 97,83 %
16.09.2015 15:02 16,0 C 15,6 C 14,4 C 97 % 15 lf 992,6 hPa 0,2 l/m 0 min 2 min 44 W/m 25,1 km/h (4 Bft) 97,87 %
16.09.2015 15:04 16,0 C 15,6 C 14,4 C 97 % 15 lf 992,6 hPa 0,2 l/m 0 min 2 min 53 W/m 23,0 km/h (4 Bft) 100,00 %
16.09.2015 15:06 15,9 C 15,6 C 14,4 C 97 % 15 lf 992,6 hPa 0,2 l/m 0 min 2 min 72 W/m 20,9 km/h (4 Bft) 100,00 %
16.09.2015 15:08 15,9 C 15,6 C 14,4 C 97 % 15 lf 992,5 hPa 0,2 l/m 0 min 2 min 87 W/m 16,7 km/h (3 Bft) 97,87 %
16.09.2015 15:10 16,0 C 15,6 C 14,4 C 97 % 15 lf 992,7 hPa 0,0 l/m 0 min 2 min 89 W/m 20,9 km/h (4 Bft) 97,83 %
16.09.2015 15:12 16,0 C 15,6 C 14,4 C 97 % 15 lf 992,7 hPa 0,2 l/m 0 min 2 min 73 W/m 20,9 km/h (4 Bft) 97,87 %
16.09.2015 15:14 16,0 C 15,6 C 14,4 C 97 % 15 lf 992,7 hPa 0,2 l/m 0 min 2 min 60 W/m 23,0 km/h (4 Bft) 95,74 %
16.09.2015 15:16 16,0 C 15,6 C 14,4 C 97 % 15 lf 992,6 hPa 0,2 l/m 0 min 2 min 66 W/m 18,8 km/h (3 Bft) 100,00 %
16.09.2015 15:18 16,0 C 15,6 C 14,4 C 97 % 15 lf 992,7 hPa 0,0 l/m 0 min 2 min 78 W/m 27,2 km/h (4 Bft) 100,00 %
16.09.2015 15:20 16,0 C 15,6 C 14,4 C 97 % 15 lf 992,6 hPa 0,0 l/m 0 min 2 min 85 W/m 20,9 km/h (4 Bft) 100,00 %
16.09.2015 15:22 16,1 C 15,6 C 14,4 C 97 % 15 lf 992,6 hPa 0,2 l/m 0 min 2 min 94 W/m 29,3 km/h (5 Bft) 97,83 %
16.09.2015 15:24 16,1 C 16,1 C 15,0 C 97 % 15 lf 992,6 hPa 0,0 l/m 0 min 2 min 91 W/m 18,8 km/h (3 Bft) 100,00 %
16.09.2015 15:26 16,1 C 16,1 C 15,0 C 97 % 15 lf 992,5 hPa 0,0 l/m 0 min 2 min 112 W/m 18,8 km/h (3 Bft) 97,87 %
16.09.2015 15:28 16,1 C 16,1 C 15,0 C 97 % 15 lf 992,4 hPa 0,2 l/m 0 min 2 min 131 W/m 20,9 km/h (4 Bft) 100,00 %
16.09.2015 15:30 16,1 C 16,1 C 15,0 C 97 % 15 lf 992,4 hPa 0,0 l/m 0 min 2 min 120 W/m 23,0 km/h (4 Bft) 100,00 %
16.09.2015 15:32 16,2 C 16,1 C 15,0 C 97 % 15 lf 992,4 hPa 0,0 l/m 0 min 2 min 133 W/m 16,7 km/h (3 Bft) 97,87 %
16.09.2015 15:34 16,2 C 16,7 C 15,0 C 97 % 15 lf 992,2 hPa 0,0 l/m 0 min 2 min 207 W/m 25,1 km/h (4 Bft) 100,00 %
16.09.2015 15:36 16,2 C 16,7 C 15,6 C 97 % 15 lf 992,3 hPa 0,2 l/m 0 min 2 min 263 W/m 23,0 km/h (4 Bft) 100,00 %
16.09.2015 15:38 16,3 C 16,7 C 15,6 C 98 % 15 lf 992,5 hPa 0,0 l/m 0 min 2 min 181 W/m 25,1 km/h (4 Bft) 97,87 %
16.09.2015 15:40 16,3 C 16,1 C 15,0 C 98 % 15 lf 992,4 hPa 0,0 l/m 0 min 2 min 156 W/m 31,4 km/h (5 Bft) 97,87 %
16.09.2015 15:42 16,4 C 16,7 C 15,0 C 98 % 15 lf 992,3 hPa 0,0 l/m 0 min 2 min 197 W/m 23,0 km/h (4 Bft) 100,00 %
16.09.2015 15:44 16,4 C 16,7 C 15,6 C 98 % 15 lf 992,3 hPa 0,0 l/m 0 min 2 min 203 W/m 25,1 km/h (4 Bft) 97,87 %
16.09.2015 15:46 16,4 C 16,1 C 15,0 C 98 % 15 lf 992,4 hPa 0,0 l/m 0 min 0 min 144 W/m 20,9 km/h (4 Bft) 97,83 %
16.09.2015 15:48 16,4 C 16,1 C 15,0 C 98 % 15 lf 992,4 hPa 0,0 l/m 0 min 2 min 75 W/m 14,6 km/h (3 Bft) 93,62 %
16.09.2015 15:50 16,4 C 16,1 C 15,0 C 98 % 15 lf 992,3 hPa 0,0 l/m 0 min 2 min 63 W/m 18,8 km/h (3 Bft) 93,62 %
16.09.2015 15:52 16,4 C 16,1 C 15,0 C 98 % 15 lf 992,4 hPa 0,0 l/m 0 min 2 min 50 W/m 23,0 km/h (4 Bft) 95,74 %
16.09.2015 15:54 16,4 C 16,1 C 15,0 C 98 % 15 lf 992,3 hPa 0,0 l/m 0 min 0 min 49 W/m 27,2 km/h (4 Bft) 97,87 %
16.09.2015 15:56 16,4 C 16,1 C 15,0 C 98 % 15 lf 992,4 hPa 0,0 l/m 0 min 2 min 63 W/m 16,7 km/h (3 Bft) 95,74 %
16.09.2015 15:58 16,4 C 16,1 C 15,0 C 98 % 15 lf 992,3 hPa 0,0 l/m 0 min 2 min 97 W/m 31,4 km/h (5 Bft) 95,65 %
16.09.2015 16:00 16,5 C 16,1 C 15,0 C 98 % 15 lf 992,4 hPa 0,2 l/m 0 min 2 min 110 W/m 27,2 km/h (4 Bft) 97,87 %
16.09.2015 16:02 16,5 C 16,1 C 15,0 C 98 % 15 lf 992,4 hPa 0,0 l/m 0 min 2 min 79 W/m 20,9 km/h (4 Bft) 95,83 %
16.09.2015 16:04 16,5 C 16,7 C 15,0 C 98 % 15 lf 992,3 hPa 0,0 l/m 0 min 2 min 90 W/m 20,9 km/h (4 Bft) 93,62 %
16.09.2015 16:06 16,6 C 16,7 C 15,6 C 98 % 15 lf 992,2 hPa 0,0 l/m 0 min 2 min 122 W/m 27,2 km/h (4 Bft) 93,62 %
16.09.2015 16:08 16,6 C 16,7 C 15,6 C 98 % 15 lf 992,1 hPa 0,0 l/m 0 min 2 min 133 W/m 16,7 km/h (3 Bft) 93,62 %
16.09.2015 16:10 16,6 C 16,7 C 15,6 C 98 % 15 lf 992,2 hPa 0,0 l/m 0 min 2 min 121 W/m 16,7 km/h (3 Bft) 95,65 %
16.09.2015 16:12 16,7 C 16,7 C 15,6 C 98 % 15 lf 992,3 hPa 0,0 l/m 0 min 2 min 88 W/m 14,6 km/h (3 Bft) 95,74 %
16.09.2015 16:14 16,7 C 16,7 C 15,6 C 98 % 15 lf 992,4 hPa 0,0 l/m 0 min 2 min 51 W/m 10,5 km/h (2 Bft) 93,62 %
16.09.2015 16:16 16,7 C 16,7 C 15,6 C 98 % 15 lf 992,4 hPa 0,0 l/m 0 min 2 min 48 W/m 16,7 km/h (3 Bft) 97,87 %
16.09.2015 16:18 16,7 C 16,7 C 15,6 C 98 % 15 lf 992,4 hPa 0,0 l/m 0 min 0 min 48 W/m 16,7 km/h (3 Bft) 93,62 %
16.09.2015 16:20 16,7 C 16,7 C 15,0 C 98 % 15 lf 992,3 hPa 0,0 l/m 0 min 0 min 44 W/m 20,9 km/h (4 Bft) 95,65 %
16.09.2015 16:22 16,7 C 16,7 C 15,0 C 98 % 15 lf 991,8 hPa 0,0 l/m 0 min 0 min 50 W/m 23,0 km/h (4 Bft) 91,49 %
16.09.2015 16:24 16,7 C 16,7 C 15,0 C 98 % 15 lf 990,7 hPa 0,0 l/m 0 min 0 min 53 W/m 29,3 km/h (5 Bft) 95,74 %
16.09.2015 16:26 16,7 C 16,7 C 15,0 C 98 % 15 lf 990,2 hPa 0,2 l/m 0 min 2 min 58 W/m 33,5 km/h (5 Bft) 95,74 %
16.09.2015 16:28 16,7 C 16,7 C 15,0 C 98 % 15 lf 990,5 hPa 0,0 l/m 0 min 2 min 66 W/m 41,8 km/h (6 Bft) 95,74 %
16.09.2015 16:30 16,7 C 16,7 C 15,0 C 98 % 15 lf 991,4 hPa 0,0 l/m 0 min 2 min 61 W/m 33,5 km/h (5 Bft) 95,74 %
16.09.2015 16:32 16,7 C 16,7 C 15,0 C 98 % 15 lf 991,7 hPa 0,0 l/m 0 min 2 min 50 W/m 16,7 km/h (3 Bft) 100,00 %
16.09.2015 16:34 16,7 C 16,7 C 15,0 C 98 % 15 lf 991,7 hPa 0,0 l/m 0 min 2 min 42 W/m 14,6 km/h (3 Bft) 95,74 %
16.09.2015 16:36 16,7 C 16,7 C 15,6 C 98 % 15 lf 991,4 hPa 0,0 l/m 0 min 2 min 57 W/m 20,9 km/h (4 Bft) 97,87 %
16.09.2015 16:38 16,8 C 16,7 C 15,6 C 98 % 15 lf 991,4 hPa 0,0 l/m 0 min 2 min 86 W/m 27,2 km/h (4 Bft) 91,49 %
16.09.2015 16:40 16,8 C 16,7 C 15,6 C 98 % 15 lf 991,2 hPa 0,0 l/m 0 min 2 min 101 W/m 25,1 km/h (4 Bft) 95,74 %
16.09.2015 16:42 16,8 C 16,7 C 15,6 C 98 % 15 lf 991,3 hPa 0,0 l/m 0 min 0 min 113 W/m 18,8 km/h (3 Bft) 93,62 %
16.09.2015 16:44 16,8 C 17,2 C 15,6 C 98 % 15 lf 991,2 hPa 0,0 l/m 0 min 0 min 131 W/m 29,3 km/h (5 Bft) 95,65 %
16.09.2015 16:46 16,8 C 17,2 C 15,6 C 98 % 15 lf 991,3 hPa 0,0 l/m 0 min 0 min 149 W/m 20,9 km/h (4 Bft) 97,87 %
16.09.2015 16:48 16,9 C 17,2 C 16,1 C 98 % 15 lf 991,2 hPa 0,0 l/m 0 min 0 min 156 W/m 23,0 km/h (4 Bft) 93,62 %
16.09.2015 16:50 16,9 C 17,2 C 16,1 C 98 % 15 lf 991,2 hPa 0,2 l/m 0 min 0 min 160 W/m 20,9 km/h (4 Bft) 94,34 %
16.09.2015 16:52 17,0 C 17,2 C 16,1 C 98 % 15 lf 991,2 hPa 0,0 l/m 0 min 2 min 154 W/m 16,7 km/h (3 Bft) 91,67 %
16.09.2015 16:54 17,1 C 17,2 C 16,1 C 98 % 15 lf 991,1 hPa 0,0 l/m 0 min 2 min 135 W/m 20,9 km/h (4 Bft) 93,62 %
16.09.2015 16:56 17,1 C 17,2 C 16,1 C 99 % 15 lf 991,2 hPa 0,0 l/m 0 min 2 min 118 W/m 20,9 km/h (4 Bft) 97,87 %
16.09.2015 16:58 17,1 C 17,2 C 16,1 C 99 % 15 lf 991,2 hPa 0,0 l/m 0 min 2 min 115 W/m 16,7 km/h (3 Bft) 95,74 %
16.09.2015 17:00 17,2 C 17,2 C 16,1 C 99 % 15 lf 991,2 hPa 0,0 l/m 0 min 2 min 112 W/m 18,8 km/h (3 Bft) 95,74 %
16.09.2015 17:02 17,2 C 17,2 C 16,1 C 99 % 14 lf 991,1 hPa 0,0 l/m 0 min 2 min 104 W/m 14,6 km/h (3 Bft) 95,65 %
16.09.2015 17:04 17,2 C 17,2 C 16,1 C 99 % 14 lf 991,0 hPa 0,0 l/m 0 min 0 min 93 W/m 18,8 km/h (3 Bft) 89,36 %
16.09.2015 17:06 17,2 C 17,2 C 16,1 C 99 % 13 lf 990,7 hPa 0,0 l/m 0 min 0 min 69 W/m 31,4 km/h (5 Bft) 97,44 %
16.09.2015 17:08 17,2 C 17,2 C 15,6 C 99 % 13 lf 990,3 hPa 0,0 l/m 0 min 0 min 54 W/m 29,3 km/h (5 Bft) 93,62 %
16.09.2015 17:10 17,2 C 17,2 C 15,6 C 99 % 12 lf 989,8 hPa 0,0 l/m 0 min 2 min 47 W/m 18,8 km/h (3 Bft) 91,49 %
16.09.2015 17:12 17,2 C 17,2 C 15,6 C 99 % 12 lf 990,2 hPa 0,0 l/m 0 min 2 min 60 W/m 27,2 km/h (4 Bft) 95,74 %
16.09.2015 17:14 17,2 C 17,2 C 15,6 C 99 % 11 lf 990,5 hPa 0,0 l/m 0 min 2 min 75 W/m 31,4 km/h (5 Bft) 95,74 %
16.09.2015 17:16 17,2 C 17,2 C 15,6 C 99 % 10 lf 990,3 hPa 0,0 l/m 0 min 2 min 96 W/m 25,1 km/h (4 Bft) 93,62 %
16.09.2015 17:18 17,2 C 17,2 C 16,1 C 99 % 9 lf 990,7 hPa 0,0 l/m 0 min 2 min 102 W/m 31,4 km/h (5 Bft) 95,74 %
16.09.2015 17:20 17,2 C 17,2 C 16,1 C 99 % 8 lf 990,8 hPa 0,0 l/m 0 min 0 min 96 W/m 29,3 km/h (5 Bft) 95,65 %
16.09.2015 17:22 17,2 C 17,2 C 16,1 C 99 % 15 lf 990,9 hPa 0,0 l/m 0 min 0 min 86 W/m 33,5 km/h (5 Bft) 94,55 %
16.09.2015 17:24 17,3 C 17,2 C 16,1 C 99 % 15 lf 991,1 hPa 0,0 l/m 0 min 0 min 83 W/m 25,1 km/h (4 Bft) 93,48 %
16.09.2015 17:26 17,3 C 17,2 C 16,1 C 99 % 14 lf 991,1 hPa 0,0 l/m 0 min 0 min 79 W/m 35,6 km/h (5 Bft) 95,74 %
16.09.2015 17:28 17,3 C 17,2 C 16,1 C 99 % 14 lf 991,2 hPa 0,0 l/m 0 min 0 min 74 W/m 29,3 km/h (5 Bft) 95,00 %
16.09.2015 17:30 17,3 C 17,2 C 16,1 C 99 % 14 lf 991,2 hPa 0,0 l/m 0 min 0 min 56 W/m 23,0 km/h (4 Bft) 93,62 %
16.09.2015 17:32 17,3 C 17,2 C 15,6 C 99 % 14 lf 991,2 hPa 0,0 l/m 0 min 0 min 41 W/m 25,1 km/h (4 Bft) 97,96 %
16.09.2015 17:34 17,3 C 17,2 C 15,6 C 99 % 14 lf 991,1 hPa 0,0 l/m 0 min 0 min 24 W/m 23,0 km/h (4 Bft) 97,87 %
16.09.2015 17:36 17,3 C 17,2 C 15,6 C 99 % 13 lf 991,0 hPa 0,0 l/m 0 min 2 min 19 W/m 16,7 km/h (3 Bft) 95,74 %
16.09.2015 17:38 17,3 C 17,2 C 15,6 C 99 % 14 lf 990,9 hPa 0,0 l/m 0 min 2 min 19 W/m 29,3 km/h (5 Bft) 97,83 %
16.09.2015 17:40 17,3 C 17,2 C 15,6 C 99 % 14 lf 991,0 hPa 0,0 l/m 0 min 2 min 24 W/m 25,1 km/h (4 Bft) 95,74 %
16.09.2015 17:42 17,3 C 17,2 C 15,6 C 99 % 14 lf 991,3 hPa 0,0 l/m 0 min 2 min 31 W/m 27,2 km/h (4 Bft) 97,87 %
16.09.2015 17:44 17,3 C 17,2 C 15,6 C 99 % 14 lf 991,2 hPa 0,0 l/m 0 min 2 min 37 W/m 23,0 km/h (4 Bft) 95,74 %
16.09.2015 17:46 17,3 C 17,2 C 15,6 C 99 % 13 lf 991,0 hPa 0,0 l/m 0 min 2 min 33 W/m 14,6 km/h (3 Bft) 95,74 %
16.09.2015 17:48 17,3 C 17,2 C 15,6 C 99 % 13 lf 991,0 hPa 0,0 l/m 0 min 0 min 25 W/m 14,6 km/h (3 Bft) 95,74 %
16.09.2015 17:50 17,3 C 17,2 C 15,6 C 99 % 13 lf 990,9 hPa 0,0 l/m 0 min 2 min 25 W/m 20,9 km/h (4 Bft) 95,74 %
16.09.2015 17:52 17,3 C 17,2 C 15,6 C 99 % 13 lf 990,8 hPa 0,0 l/m 0 min 2 min 24 W/m 16,7 km/h (3 Bft) 97,87 %
16.09.2015 17:54 17,3 C 17,2 C 15,6 C 99 % 12 lf 990,9 hPa 0,0 l/m 0 min 2 min 21 W/m 18,8 km/h (3 Bft) 100,00 %
16.09.2015 17:56 17,3 C 17,2 C 15,6 C 99 % 12 lf 991,1 hPa 0,0 l/m 0 min 2 min 19 W/m 23,0 km/h (4 Bft) 97,87 %
16.09.2015 17:58 17,4 C 17,2 C 15,6 C 99 % 12 lf 991,0 hPa 0,0 l/m 0 min 2 min 17 W/m 20,9 km/h (4 Bft) 97,87 %
16.09.2015 18:00 17,4 C 17,2 C 15,6 C 99 % 11 lf 991,0 hPa 0,0 l/m 0 min 2 min 15 W/m 29,3 km/h (5 Bft) 95,74 %
16.09.2015 18:02 17,4 C 17,2 C 15,6 C 99 % 10 lf 991,3 hPa 0,0 l/m 0 min 0 min 14 W/m 29,3 km/h (5 Bft) 93,62 %
16.09.2015 18:05 17,4 C 17,2 C 15,6 C 99 % 9 lf 991,2 hPa 0,0 l/m 0 min 0 min 11 W/m 25,1 km/h (4 Bft) 93,62 %
16.09.2015 18:06 17,4 C 17,2 C 15,6 C 99 % 9 lf 991,3 hPa 0,0 l/m 0 min 0 min 11 W/m 27,2 km/h (4 Bft) 95,70 %
16.09.2015 18:08 17,4 C 17,2 C 15,6 C 99 % 7 lf 991,4 hPa 0,0 l/m 0 min 0 min 7 W/m 25,1 km/h (4 Bft) 97,87 %
16.09.2015 18:10 17,4 C 17,2 C 15,6 C 99 % 6 lf 991,4 hPa 0,0 l/m 0 min 2 min 5 W/m 25,1 km/h (4 Bft) 97,87 %
16.09.2015 18:12 17,4 C 17,2 C 15,6 C 99 % 9 lf 991,4 hPa 0,0 l/m 0 min 2 min 5 W/m 20,9 km/h (4 Bft) 97,67 %
16.09.2015 18:14 17,4 C 17,2 C 15,6 C 99 % 9 lf 991,3 hPa 0,2 l/m 0 min 2 min 3 W/m 18,8 km/h (3 Bft) 97,83 %
16.09.2015 18:16 17,4 C 17,2 C 16,1 C 99 % 13 lf 991,3 hPa 0,0 l/m 0 min 2 min 5 W/m 29,3 km/h (5 Bft) 97,87 %
16.09.2015 18:18 17,4 C 17,2 C 16,1 C 99 % 13 lf 991,4 hPa 0,0 l/m 0 min 2 min 5 W/m 27,2 km/h (4 Bft) 97,87 %
16.09.2015 18:20 17,4 C 17,2 C 16,1 C 99 % 15 lf 991,4 hPa 0,2 l/m 0 min 2 min 1 W/m 18,8 km/h (3 Bft) 95,74 %
16.09.2015 18:22 17,5 C 17,2 C 16,1 C 99 % 15 lf 991,2 hPa 0,2 l/m 0 min 2 min 0 W/m 18,8 km/h (3 Bft) 100,00 %
16.09.2015 18:24 17,5 C 17,2 C 16,1 C 99 % 15 lf 991,3 hPa 0,0 l/m 0 min 2 min 0 W/m 29,3 km/h (5 Bft) 95,65 %
16.09.2015 18:26 17,5 C 17,2 C 16,1 C 99 % 15 lf 991,3 hPa 0,2 l/m 0 min 2 min 0 W/m 25,1 km/h (4 Bft) 97,87 %
16.09.2015 18:28 17,5 C 17,2 C 16,1 C 99 % 15 lf 991,3 hPa 0,2 l/m 0 min 2 min 0 W/m 20,9 km/h (4 Bft) 95,74 %
16.09.2015 18:30 17,5 C 17,2 C 16,1 C 99 % 15 lf 991,6 hPa 0,2 l/m 0 min 2 min 0 W/m 18,8 km/h (3 Bft) 95,74 %
16.09.2015 18:32 17,5 C 17,2 C 16,1 C 99 % 15 lf 991,7 hPa 0,4 l/m 0 min 2 min 0 W/m 14,6 km/h (3 Bft) 100,00 %
16.09.2015 18:34 17,5 C 17,2 C 16,1 C 99 % 15 lf 991,9 hPa 0,4 l/m 0 min 2 min 0 W/m 20,9 km/h (4 Bft) 100,00 %
16.09.2015 18:36 17,6 C 17,2 C 16,1 C 99 % 15 lf 991,9 hPa 0,6 l/m 0 min 2 min 0 W/m 16,7 km/h (3 Bft) 100,00 %
16.09.2015 18:38 17,6 C 17,2 C 16,1 C 99 % 15 lf 991,7 hPa 0,4 l/m 0 min 2 min 0 W/m 23,0 km/h (4 Bft) 97,87 %
16.09.2015 18:40 17,6 C 17,2 C 16,1 C 99 % 15 lf 991,9 hPa 0,2 l/m 0 min 2 min 0 W/m 20,9 km/h (4 Bft) 100,00 %
16.09.2015 18:42 17,6 C 17,2 C 16,1 C 99 % 15 lf 992,0 hPa 0,4 l/m 0 min 2 min 0 W/m 20,9 km/h (4 Bft) 97,78 %
16.09.2015 18:44 17,6 C 17,2 C 16,1 C 99 % 15 lf 992,2 hPa 0,2 l/m 0 min 2 min 0 W/m 23,0 km/h (4 Bft) 100,00 %
16.09.2015 18:46 17,6 C 17,2 C 16,1 C 99 % 15 lf 992,3 hPa 0,2 l/m 0 min 2 min 0 W/m 12,6 km/h (3 Bft) 97,87 %
16.09.2015 18:48 17,6 C 17,2 C 16,1 C 99 % 15 lf 992,5 hPa 0,2 l/m 0 min 2 min 0 W/m 18,8 km/h (3 Bft) 100,00 %
16.09.2015 18:50 17,6 C 17,2 C 16,1 C 99 % 15 lf 992,6 hPa 0,4 l/m 0 min 2 min 0 W/m 12,6 km/h (3 Bft) 100,00 %
16.09.2015 18:52 17,6 C 17,2 C 16,1 C 99 % 15 lf 992,8 hPa 1,0 l/m 0 min 2 min 0 W/m 16,7 km/h (3 Bft) 100,00 %
16.09.2015 18:54 17,6 C 17,2 C 16,1 C 99 % 15 lf 993,1 hPa 1,8 l/m 0 min 2 min 0 W/m 33,5 km/h (5 Bft) 97,87 %
16.09.2015 18:56 17,6 C 17,2 C 16,1 C 99 % 15 lf 993,1 hPa 3,4 l/m 0 min 2 min 0 W/m 23,0 km/h (4 Bft) 100,00 %
16.09.2015 18:58 17,6 C 17,2 C 16,1 C 99 % 15 lf 992,4 hPa 3,0 l/m 0 min 2 min 4 W/m 14,6 km/h (3 Bft) 95,74 %
16.09.2015 19:00 17,6 C 16,7 C 15,6 C 99 % 15 lf 991,5 hPa 0,8 l/m 0 min 2 min 9 W/m 10,5 km/h (2 Bft) 97,14 %
16.09.2015 19:02 17,6 C 16,7 C 15,6 C 99 % 15 lf 991,4 hPa 0,2 l/m 0 min 2 min 15 W/m 6,3 km/h (2 Bft) 100,00 %
16.09.2015 19:04 17,5 C 16,7 C 15,6 C 99 % 15 lf 990,9 hPa 0,2 l/m 0 min 2 min 25 W/m 12,6 km/h (3 Bft) 100,00 %
16.09.2015 19:06 17,4 C 16,7 C 15,6 C 99 % 15 lf 990,7 hPa 0,0 l/m 2 min 2 min 51 W/m 18,8 km/h (3 Bft) 95,74 %
16.09.2015 19:08 17,4 C 16,7 C 15,6 C 99 % 15 lf 989,9 hPa 0,2 l/m 2 min 2 min 67 W/m 20,9 km/h (4 Bft) 100,00 %
16.09.2015 19:10 17,3 C 16,7 C 15,6 C 99 % 15 lf 989,8 hPa 0,0 l/m 2 min 2 min 65 W/m 25,1 km/h (4 Bft) 100,00 %
16.09.2015 19:12 17,3 C 16,7 C 15,6 C 98 % 15 lf 989,9 hPa 0,0 l/m 2 min 2 min 60 W/m 29,3 km/h (5 Bft) 100,00 %
16.09.2015 19:14 17,3 C 17,2 C 15,6 C 98 % 15 lf 989,9 hPa 0,0 l/m 2 min 2 min 61 W/m 29,3 km/h (5 Bft) 98,15 %
16.09.2015 19:16 17,3 C 17,2 C 15,6 C 98 % 15 lf 990,0 hPa 0,0 l/m 2 min 2 min 66 W/m 18,8 km/h (3 Bft) 100,00 %
16.09.2015 19:18 17,3 C 17,2 C 15,6 C 98 % 15 lf 990,3 hPa 0,0 l/m 2 min 0 min 63 W/m 16,7 km/h (3 Bft) 100,00 %
16.09.2015 19:20 17,3 C 17,2 C 15,6 C 99 % 15 lf 990,5 hPa 0,0 l/m 2 min 0 min 55 W/m 14,6 km/h (3 Bft) 100,00 %
16.09.2015 19:22 17,3 C 17,2 C 15,6 C 99 % 15 lf 990,5 hPa 0,0 l/m 2 min 0 min 45 W/m 16,7 km/h (3 Bft) 97,96 %
16.09.2015 19:24 17,3 C 17,2 C 15,6 C 99 % 15 lf 990,7 hPa 0,0 l/m 2 min 0 min 38 W/m 18,8 km/h (3 Bft) 97,87 %
16.09.2015 19:26 17,2 C 17,2 C 15,6 C 99 % 15 lf 990,8 hPa 0,0 l/m 2 min 0 min 35 W/m 16,7 km/h (3 Bft) 93,62 %
16.09.2015 19:28 17,2 C 17,2 C 15,6 C 99 % 15 lf 990,9 hPa 0,0 l/m 2 min 0 min 32 W/m 23,0 km/h (4 Bft) 97,92 %
16.09.2015 19:30 17,2 C 17,2 C 15,6 C 99 % 15 lf 991,0 hPa 0,0 l/m 2 min 0 min 23 W/m 20,9 km/h (4 Bft) 95,74 %
16.09.2015 19:32 17,2 C 17,2 C 15,6 C 99 % 15 lf 991,1 hPa 0,0 l/m 0 min 0 min 10 W/m 14,6 km/h (3 Bft) 95,74 %
16.09.2015 19:34 17,3 C 17,2 C 15,6 C 99 % 15 lf 991,2 hPa 0,0 l/m 0 min 0 min 6 W/m 25,1 km/h (4 Bft) 95,74 %
16.09.2015 19:36 17,3 C 17,2 C 16,1 C 99 % 15 lf 991,2 hPa 0,0 l/m 0 min 0 min 5 W/m 25,1 km/h (4 Bft) 95,74 %
16.09.2015 19:38 17,3 C 17,2 C 15,6 C 99 % 15 lf 991,3 hPa 0,0 l/m 0 min 0 min 5 W/m 23,0 km/h (4 Bft) 95,65 %
16.09.2015 19:40 17,3 C 17,2 C 15,6 C 99 % 15 lf 991,4 hPa 0,0 l/m 0 min 0 min 5 W/m 23,0 km/h (4 Bft) 91,49 %
16.09.2015 19:42 17,3 C 17,2 C 15,6 C 99 % 15 lf 991,6 hPa 0,0 l/m 0 min 0 min 6 W/m 14,6 km/h (3 Bft) 95,45 %
16.09.2015 19:44 17,3 C 17,2 C 15,6 C 99 % 15 lf 991,5 hPa 0,0 l/m 0 min 0 min 9 W/m 16,7 km/h (3 Bft) 93,62 %
16.09.2015 19:46 17,3 C 17,2 C 16,1 C 99 % 15 lf 991,5 hPa 0,0 l/m 0 min 0 min 5 W/m 12,6 km/h (3 Bft) 93,48 %
16.09.2015 19:48 17,3 C 17,2 C 16,1 C 99 % 15 lf 991,4 hPa 0,0 l/m 0 min 0 min 0 W/m 20,9 km/h (4 Bft) 93,75 %
16.09.2015 19:50 17,3 C 17,2 C 16,1 C 99 % 15 lf 991,3 hPa 0,0 l/m 0 min 0 min 0 W/m 29,3 km/h (5 Bft) 94,74 %
16.09.2015 19:52 17,3 C 17,2 C 16,1 C 99 % 15 lf 991,2 hPa 0,0 l/m 0 min 0 min 0 W/m 16,7 km/h (3 Bft) 96,55 %
16.09.2015 19:54 17,3 C 17,2 C 16,1 C 99 % 15 lf 991,2 hPa 0,0 l/m 0 min 0 min 0 W/m 16,7 km/h (3 Bft) 94,29 %
16.09.2015 19:56 17,3 C 17,2 C 16,1 C 99 % 15 lf 991,3 hPa 0,0 l/m 0 min 0 min 0 W/m 16,7 km/h (3 Bft) 90,74 %
16.09.2015 19:58 17,3 C 17,2 C 16,1 C 99 % 15 lf 991,2 hPa 0,0 l/m 0 min 0 min 0 W/m 23,0 km/h (4 Bft) 93,62 %
16.09.2015 20:00 17,4 C 17,2 C 16,1 C 99 % 15 lf 991,0 hPa 0,0 l/m 0 min 0 min 0 W/m 16,7 km/h (3 Bft) 89,58 %
16.09.2015 20:02 17,4 C 17,2 C 15,6 C 99 % 15 lf 990,8 hPa 0,0 l/m 0 min 0 min 0 W/m 14,6 km/h (3 Bft) 90,38 %
16.09.2015 20:04 17,3 C 17,2 C 15,6 C 99 % 15 lf 991,1 hPa 0,0 l/m 0 min 0 min 0 W/m 16,7 km/h (3 Bft) 97,37 %
16.09.2015 20:06 17,3 C 16,7 C 15,6 C 99 % 15 lf 991,0 hPa 0,0 l/m 0 min 0 min 0 W/m 18,8 km/h (3 Bft) 91,67 %
16.09.2015 20:08 17,3 C 16,7 C 15,6 C 99 % 15 lf 991,0 hPa 0,0 l/m 0 min 0 min 0 W/m 18,8 km/h (3 Bft) 91,49 %
16.09.2015 20:10 17,3 C 16,7 C 15,6 C 99 % 15 lf 991,1 hPa 0,0 l/m 0 min 0 min 0 W/m 14,6 km/h (3 Bft) 91,49 %
16.09.2015 20:12 17,2 C 16,7 C 15,6 C 99 % 15 lf 991,0 hPa 0,0 l/m 0 min 0 min 0 W/m 18,8 km/h (3 Bft) 89,36 %
16.09.2015 20:14 17,2 C 16,7 C 15,6 C 99 % 15 lf 991,2 hPa 0,0 l/m 0 min 0 min 0 W/m 12,6 km/h (3 Bft) 91,30 %
16.09.2015 20:16 17,2 C 16,7 C 15,6 C 99 % 15 lf 991,3 hPa 0,0 l/m 0 min 0 min 0 W/m 20,9 km/h (4 Bft) 89,36 %
16.09.2015 20:18 17,1 C 16,7 C 15,0 C 99 % 15 lf 991,2 hPa 0,0 l/m 0 min 0 min 0 W/m 18,8 km/h (3 Bft) 89,36 %
16.09.2015 20:20 17,1 C 16,7 C 15,0 C 99 % 15 lf 991,3 hPa 0,0 l/m 0 min 0 min 0 W/m 14,6 km/h (3 Bft) 87,23 %
16.09.2015 20:22 17,1 C 16,7 C 15,0 C 99 % 15 lf 991,3 hPa 0,0 l/m 0 min 0 min 0 W/m 23,0 km/h (4 Bft) 89,09 %
16.09.2015 20:24 17,0 C 16,7 C 15,0 C 99 % 15 lf 991,2 hPa 0,0 l/m 0 min 0 min 0 W/m 16,7 km/h (3 Bft) 95,74 %
16.09.2015 20:26 16,9 C 16,7 C 15,0 C 99 % 15 lf 991,1 hPa 0,0 l/m 0 min 0 min 0 W/m 16,7 km/h (3 Bft) 95,74 %
16.09.2015 20:28 16,9 C 16,7 C 15,0 C 99 % 15 lf 990,9 hPa 0,0 l/m 0 min 0 min 0 W/m 18,8 km/h (3 Bft) 97,87 %
16.09.2015 20:30 16,8 C 16,1 C 15,0 C 99 % 15 lf 991,1 hPa 0,0 l/m 0 min 0 min 0 W/m 16,7 km/h (3 Bft) 97,22 %
16.09.2015 20:32 16,8 C 16,1 C 15,0 C 99 % 15 lf 990,9 hPa 0,0 l/m 0 min 0 min 0 W/m 14,6 km/h (3 Bft) 95,83 %
16.09.2015 20:34 16,8 C 16,1 C 15,0 C 99 % 15 lf 991,3 hPa 0,0 l/m 0 min 0 min 0 W/m 18,8 km/h (3 Bft) 97,83 %
16.09.2015 20:36 16,7 C 16,1 C 15,0 C 99 % 15 lf 991,2 hPa 0,0 l/m 0 min 0 min 0 W/m 16,7 km/h (3 Bft) 93,62 %
16.09.2015 20:38 16,7 C 16,1 C 15,0 C 99 % 15 lf 991,3 hPa 0,0 l/m 0 min 0 min 0 W/m 14,6 km/h (3 Bft) 97,87 %
16.09.2015 20:40 16,7 C 16,1 C 15,0 C 99 % 15 lf 991,4 hPa 0,0 l/m 0 min 0 min 0 W/m 16,7 km/h (3 Bft) 95,74 %
16.09.2015 20:42 16,7 C 16,1 C 15,0 C 99 % 15 lf 991,5 hPa 0,0 l/m 0 min 0 min 0 W/m 20,9 km/h (4 Bft) 97,87 %
16.09.2015 20:44 16,6 C 16,1 C 15,0 C 99 % 15 lf 991,5 hPa 0,0 l/m 0 min 0 min 0 W/m 16,7 km/h (3 Bft) 97,87 %
16.09.2015 20:46 16,6 C 16,1 C 15,0 C 99 % 15 lf 991,5 hPa 0,0 l/m 0 min 0 min 0 W/m 12,6 km/h (3 Bft) 97,83 %
16.09.2015 20:48 16,6 C 16,1 C 15,0 C 99 % 15 lf 991,5 hPa 0,0 l/m 0 min 0 min 0 W/m 10,5 km/h (2 Bft) 95,74 %
16.09.2015 20:50 16,6 C 16,1 C 15,0 C 99 % 15 lf 991,6 hPa 0,0 l/m 0 min 0 min 0 W/m 18,8 km/h (3 Bft) 93,62 %
16.09.2015 20:52 16,6 C 16,1 C 15,0 C 99 % 15 lf 991,4 hPa 0,0 l/m 0 min 0 min 0 W/m 29,3 km/h (5 Bft) 97,92 %
16.09.2015 20:54 16,6 C 16,1 C 15,0 C 99 % 15 lf 991,4 hPa 0,0 l/m 0 min 0 min 0 W/m 16,7 km/h (3 Bft) 97,87 %
16.09.2015 20:56 16,6 C 16,1 C 15,0 C 99 % 15 lf 991,6 hPa 0,0 l/m 0 min 0 min 0 W/m 16,7 km/h (3 Bft) 97,87 %
16.09.2015 20:58 16,6 C 16,1 C 15,0 C 99 % 15 lf 991,5 hPa 0,0 l/m 0 min 0 min 0 W/m 14,6 km/h (3 Bft) 100,00 %
16.09.2015 21:00 16,6 C 16,1 C 15,0 C 99 % 15 lf 991,4 hPa 0,0 l/m 0 min 0 min 0 W/m 12,6 km/h (3 Bft) 100,00 %
16.09.2015 21:02 16,6 C 16,1 C 15,0 C 99 % 15 lf 991,3 hPa 0,0 l/m 0 min 0 min 0 W/m 14,6 km/h (3 Bft) 97,87 %
16.09.2015 21:04 16,6 C 16,1 C 15,0 C 99 % 15 lf 991,5 hPa 0,0 l/m 0 min 0 min 0 W/m 12,6 km/h (3 Bft) 97,87 %
16.09.2015 21:06 16,6 C 16,1 C 15,0 C 99 % 15 lf 991,7 hPa 0,0 l/m 0 min 0 min 0 W/m 20,9 km/h (4 Bft) 95,74 %
16.09.2015 21:08 16,6 C 16,1 C 15,0 C 99 % 15 lf 991,8 hPa 0,0 l/m 0 min 0 min 0 W/m 25,1 km/h (4 Bft) 100,00 %
16.09.2015 21:10 16,6 C 16,1 C 15,0 C 99 % 15 lf 991,8 hPa 0,0 l/m 0 min 0 min 0 W/m 16,7 km/h (3 Bft) 97,83 %
16.09.2015 21:12 16,6 C 16,1 C 15,0 C 99 % 15 lf 991,7 hPa 0,0 l/m 0 min 0 min 0 W/m 18,8 km/h (3 Bft) 95,74 %
16.09.2015 21:14 16,6 C 16,1 C 15,0 C 99 % 15 lf 991,7 hPa 0,0 l/m 0 min 0 min 0 W/m 27,2 km/h (4 Bft) 95,74 %
16.09.2015 21:16 16,5 C 16,1 C 15,0 C 99 % 15 lf 991,6 hPa 0,0 l/m 0 min 0 min 0 W/m 16,7 km/h (3 Bft) 100,00 %
16.09.2015 21:18 16,5 C 16,1 C 15,0 C 99 % 15 lf 991,5 hPa 0,0 l/m 0 min 0 min 0 W/m 20,9 km/h (4 Bft) 100,00 %
16.09.2015 21:20 16,4 C 16,1 C 15,0 C 99 % 15 lf 991,7 hPa 0,0 l/m 0 min 0 min 0 W/m 29,3 km/h (5 Bft) 100,00 %
16.09.2015 21:22 16,4 C 16,1 C 15,0 C 99 % 15 lf 991,6 hPa 0,0 l/m 0 min 0 min 0 W/m 25,1 km/h (4 Bft) 100,00 %
16.09.2015 21:24 16,3 C 16,1 C 14,4 C 99 % 15 lf 991,5 hPa 0,0 l/m 0 min 0 min 0 W/m 25,1 km/h (4 Bft) 100,00 %
16.09.2015 21:26 16,3 C 16,1 C 14,4 C 99 % 15 lf 991,5 hPa 0,0 l/m 0 min 0 min 0 W/m 25,1 km/h (4 Bft) 100,00 %
16.09.2015 21:28 16,2 C 15,6 C 14,4 C 99 % 15 lf 991,5 hPa 0,0 l/m 0 min 0 min 0 W/m 39,7 km/h (6 Bft) 97,87 %
16.09.2015 21:30 16,2 C 15,6 C 14,4 C 99 % 15 lf 991,4 hPa 0,0 l/m 0 min 0 min 0 W/m 27,2 km/h (4 Bft) 100,00 %
16.09.2015 21:32 16,1 C 15,6 C 14,4 C 99 % 15 lf 991,3 hPa 0,0 l/m 0 min 0 min 0 W/m 27,2 km/h (4 Bft) 97,87 %
16.09.2015 21:34 15,9 C 15,6 C 14,4 C 99 % 15 lf 991,3 hPa 0,0 l/m 0 min 0 min 0 W/m 25,1 km/h (4 Bft) 95,74 %
16.09.2015 21:36 15,9 C 15,6 C 14,4 C 98 % 15 lf 991,2 hPa 0,0 l/m 0 min 0 min 0 W/m 37,7 km/h (5 Bft) 100,00 %
16.09.2015 21:38 15,8 C 15,6 C 14,4 C 98 % 15 lf 991,2 hPa 0,0 l/m 0 min 0 min 0 W/m 27,2 km/h (4 Bft) 97,87 %
16.09.2015 21:40 15,8 C 15,6 C 14,4 C 98 % 15 lf 991,1 hPa 0,0 l/m 0 min 0 min 0 W/m 20,9 km/h (4 Bft) 100,00 %
16.09.2015 21:42 15,7 C 15,6 C 14,4 C 98 % 15 lf 991,2 hPa 0,0 l/m 0 min 0 min 0 W/m 25,1 km/h (4 Bft) 95,74 %
16.09.2015 21:44 15,7 C 15,6 C 14,4 C 98 % 15 lf 991,5 hPa 0,0 l/m 0 min 0 min 0 W/m 27,2 km/h (4 Bft) 96,23 %
16.09.2015 21:46 15,6 C 15,6 C 14,4 C 98 % 15 lf 991,6 hPa 0,0 l/m 0 min 0 min 0 W/m 29,3 km/h (5 Bft) 95,74 %
16.09.2015 21:48 15,6 C 15,0 C 14,4 C 98 % 15 lf 991,7 hPa 0,0 l/m 0 min 0 min 0 W/m 20,9 km/h (4 Bft) 100,00 %
16.09.2015 21:50 15,5 C 15,6 C 14,4 C 98 % 15 lf 991,7 hPa 0,0 l/m 0 min 0 min 0 W/m 27,2 km/h (4 Bft) 97,87 %
16.09.2015 21:52 15,5 C 15,0 C 14,4 C 98 % 15 lf 991,7 hPa 0,0 l/m 0 min 0 min 0 W/m 18,8 km/h (3 Bft) 95,83 %
16.09.2015 21:54 15,4 C 15,0 C 13,9 C 98 % 15 lf 991,6 hPa 0,0 l/m 0 min 0 min 0 W/m 25,1 km/h (4 Bft) 97,83 %
16.09.2015 21:56 15,4 C 15,0 C 13,9 C 98 % 15 lf 991,7 hPa 0,0 l/m 0 min 0 min 0 W/m 20,9 km/h (4 Bft) 97,87 %
16.09.2015 21:58 15,4 C 15,0 C 13,9 C 98 % 15 lf 991,9 hPa 0,0 l/m 0 min 0 min 0 W/m 25,1 km/h (4 Bft) 97,87 %
16.09.2015 22:00 15,3 C 15,0 C 13,9 C 98 % 15 lf 991,9 hPa 0,0 l/m 0 min 0 min 0 W/m 20,9 km/h (4 Bft) 97,87 %
16.09.2015 22:02 15,3 C 15,0 C 13,9 C 98 % 15 lf 991,8 hPa 0,0 l/m 0 min 0 min 0 W/m 23,0 km/h (4 Bft) 95,83 %
16.09.2015 22:04 15,3 C 15,6 C 13,9 C 98 % 15 lf 991,9 hPa 0,0 l/m 0 min 0 min 0 W/m 25,1 km/h (4 Bft) 97,83 %
16.09.2015 22:06 15,3 C 15,6 C 13,9 C 98 % 15 lf 991,9 hPa 0,0 l/m 0 min 0 min 0 W/m 25,1 km/h (4 Bft) 97,87 %
16.09.2015 22:08 15,3 C 15,6 C 13,9 C 98 % 15 lf 992,0 hPa 0,0 l/m 0 min 0 min 0 W/m 18,8 km/h (3 Bft) 97,87 %
16.09.2015 22:10 15,3 C 15,6 C 13,9 C 98 % 15 lf 992,1 hPa 0,0 l/m 0 min 0 min 0 W/m 18,8 km/h (3 Bft) 97,87 %
16.09.2015 22:12 15,3 C 15,6 C 13,9 C 98 % 15 lf 992,1 hPa 0,0 l/m 0 min 0 min 0 W/m 18,8 km/h (3 Bft) 97,87 %
16.09.2015 22:14 15,3 C 15,6 C 13,9 C 98 % 15 lf 992,0 hPa 0,0 l/m 0 min 0 min 0 W/m 12,6 km/h (3 Bft) 93,62 %
16.09.2015 22:16 15,3 C 15,6 C 13,9 C 98 % 15 lf 991,9 hPa 0,0 l/m 0 min 0 min 0 W/m 14,6 km/h (3 Bft) 95,65 %
16.09.2015 22:18 15,3 C 15,6 C 13,9 C 98 % 15 lf 992,0 hPa 0,0 l/m 0 min 0 min 0 W/m 16,7 km/h (3 Bft) 95,74 %
16.09.2015 22:20 15,3 C 15,6 C 13,9 C 98 % 15 lf 992,0 hPa 0,0 l/m 0 min 0 min 0 W/m 12,6 km/h (3 Bft) 97,87 %
16.09.2015 22:22 15,2 C 15,6 C 13,9 C 98 % 15 lf 992,0 hPa 0,0 l/m 0 min 0 min 0 W/m 23,0 km/h (4 Bft) 97,22 %
16.09.2015 22:24 15,2 C 15,6 C 13,9 C 98 % 15 lf 992,0 hPa 0,0 l/m 0 min 0 min 0 W/m 31,4 km/h (5 Bft) 97,87 %
16.09.2015 22:26 15,2 C 15,6 C 13,9 C 97 % 15 lf 992,0 hPa 0,0 l/m 0 min 0 min 0 W/m 16,7 km/h (3 Bft) 95,74 %
16.09.2015 22:28 15,2 C 15,6 C 13,9 C 97 % 15 lf 992,1 hPa 0,0 l/m 0 min 0 min 0 W/m 20,9 km/h (4 Bft) 95,74 %
16.09.2015 22:30 15,2 C 15,6 C 13,9 C 97 % 15 lf 992,1 hPa 0,0 l/m 0 min 0 min 0 W/m 23,0 km/h (4 Bft) 97,87 %
16.09.2015 22:32 15,2 C 15,6 C 13,9 C 97 % 15 lf 992,1 hPa 0,0 l/m 0 min 0 min 0 W/m 18,8 km/h (3 Bft) 97,92 %
16.09.2015 22:34 15,2 C 15,6 C 13,9 C 97 % 15 lf 992,2 hPa 0,0 l/m 0 min 0 min 0 W/m 16,7 km/h (3 Bft) 97,87 %
16.09.2015 22:36 15,2 C 15,6 C 13,9 C 97 % 15 lf 992,3 hPa 0,0 l/m 0 min 0 min 0 W/m 18,8 km/h (3 Bft) 95,74 %
16.09.2015 22:38 15,2 C 15,6 C 13,9 C 97 % 14 lf 992,3 hPa 0,0 l/m 0 min 0 min 0 W/m 14,6 km/h (3 Bft) 97,87 %
16.09.2015 22:40 15,2 C 15,6 C 13,9 C 97 % 14 lf 992,4 hPa 0,0 l/m 0 min 0 min 0 W/m 16,7 km/h (3 Bft) 95,74 %
16.09.2015 22:42 15,2 C 15,6 C 13,9 C 97 % 14 lf 992,4 hPa 0,0 l/m 0 min 0 min 0 W/m 18,8 km/h (3 Bft) 95,74 %
16.09.2015 22:44 15,2 C 15,6 C 13,9 C 96 % 13 lf 992,5 hPa 0,0 l/m 0 min 0 min 0 W/m 20,9 km/h (4 Bft) 97,87 %
16.09.2015 22:46 15,2 C 15,6 C 13,9 C 96 % 13 lf 992,5 hPa 0,0 l/m 0 min 0 min 0 W/m 14,6 km/h (3 Bft) 97,83 %
16.09.2015 22:48 15,2 C 15,6 C 13,3 C 96 % 12 lf 992,5 hPa 0,0 l/m 0 min 0 min 0 W/m 14,6 km/h (3 Bft) 97,87 %
16.09.2015 22:50 15,2 C 15,6 C 13,3 C 96 % 12 lf 992,5 hPa 0,0 l/m 0 min 0 min 0 W/m 12,6 km/h (3 Bft) 97,87 %
16.09.2015 22:52 15,2 C 15,6 C 13,3 C 96 % 11 lf 992,5 hPa 0,0 l/m 0 min 0 min 0 W/m 18,8 km/h (3 Bft) 93,62 %
16.09.2015 22:54 15,1 C 15,6 C 13,9 C 96 % 10 lf 992,5 hPa 0,0 l/m 0 min 0 min 0 W/m 18,8 km/h (3 Bft) 95,74 %
16.09.2015 22:56 15,1 C 15,6 C 13,9 C 96 % 10 lf 992,4 hPa 0,0 l/m 0 min 0 min 0 W/m 18,8 km/h (3 Bft) 91,49 %
16.09.2015 22:58 15,1 C 15,6 C 13,9 C 95 % 8 lf 992,5 hPa 0,0 l/m 0 min 0 min 0 W/m 16,7 km/h (3 Bft) 97,83 %
16.09.2015 23:00 15,1 C 15,6 C 13,9 C 95 % 6 lf 992,5 hPa 0,0 l/m 0 min 0 min 0 W/m 20,9 km/h (4 Bft) 97,87 %
16.09.2015 23:02 15,1 C 15,6 C 13,9 C 95 % 4 lf 992,5 hPa 0,0 l/m 0 min 0 min 0 W/m 16,7 km/h (3 Bft) 95,74 %
16.09.2015 23:04 15,1 C 15,6 C 13,9 C 95 % 3 lf 992,6 hPa 0,0 l/m 0 min 0 min 0 W/m 18,8 km/h (3 Bft) 93,62 %
16.09.2015 23:06 15,1 C 15,6 C 13,9 C 95 % 2 lf 992,7 hPa 0,0 l/m 0 min 0 min 0 W/m 16,7 km/h (3 Bft) 91,49 %
16.09.2015 23:08 15,1 C 15,6 C 13,9 C 94 % 1 lf 992,6 hPa 0,0 l/m 0 min 0 min 0 W/m 20,9 km/h (4 Bft) 93,62 %
16.09.2015 23:10 15,1 C 15,6 C 13,9 C 94 % 1 lf 992,6 hPa 0,0 l/m 0 min 0 min 0 W/m 23,0 km/h (4 Bft) 91,30 %
16.09.2015 23:12 15,1 C 15,6 C 13,9 C 94 % 1 lf 992,7 hPa 0,0 l/m 0 min 0 min 0 W/m 14,6 km/h (3 Bft) 93,62 %
16.09.2015 23:14 15,2 C 16,1 C 13,9 C 94 % 0 lf 992,7 hPa 0,0 l/m 0 min 0 min 0 W/m 25,1 km/h (4 Bft) 95,74 %
16.09.2015 23:16 15,2 C 15,6 C 13,3 C 93 % 0 lf 992,7 hPa 0,0 l/m 0 min 0 min 0 W/m 14,6 km/h (3 Bft) 93,62 %
16.09.2015 23:18 15,2 C 15,6 C 13,9 C 93 % 0 lf 992,6 hPa 0,0 l/m 0 min 0 min 0 W/m 20,9 km/h (4 Bft) 95,74 %
16.09.2015 23:20 15,2 C 15,6 C 13,9 C 93 % 0 lf 992,7 hPa 0,0 l/m 0 min 0 min 0 W/m 18,8 km/h (3 Bft) 95,74 %
16.09.2015 23:22 15,2 C 15,6 C 13,3 C 92 % 0 lf 992,7 hPa 0,0 l/m 0 min 0 min 0 W/m 16,7 km/h (3 Bft) 93,48 %
16.09.2015 23:24 15,2 C 15,6 C 13,9 C 92 % 0 lf 992,8 hPa 0,0 l/m 0 min 0 min 0 W/m 18,8 km/h (3 Bft) 93,62 %
16.09.2015 23:26 15,2 C 15,6 C 13,9 C 92 % 0 lf 992,9 hPa 0,0 l/m 0 min 0 min 0 W/m 14,6 km/h (3 Bft) 93,62 %
16.09.2015 23:28 15,2 C 15,6 C 13,9 C 92 % 0 lf 992,8 hPa 0,0 l/m 0 min 0 min 0 W/m 18,8 km/h (3 Bft) 93,62 %
16.09.2015 23:30 15,3 C 16,1 C 13,9 C 91 % 0 lf 992,7 hPa 0,0 l/m 0 min 0 min 0 W/m 18,8 km/h (3 Bft) 95,74 %
16.09.2015 23:32 15,3 C 15,6 C 13,3 C 91 % 0 lf 992,7 hPa 0,0 l/m 0 min 0 min 0 W/m 16,7 km/h (3 Bft) 95,65 %
16.09.2015 23:34 15,3 C 15,6 C 13,3 C 91 % 0 lf 992,7 hPa 0,0 l/m 0 min 0 min 0 W/m 14,6 km/h (3 Bft) 95,74 %
16.09.2015 23:36 15,3 C 15,6 C 13,3 C 91 % 0 lf 992,7 hPa 0,0 l/m 0 min 0 min 0 W/m 27,2 km/h (4 Bft) 91,49 %
16.09.2015 23:38 15,3 C 15,6 C 13,3 C 90 % 0 lf 992,8 hPa 0,0 l/m 0 min 0 min 0 W/m 25,1 km/h (4 Bft) 95,74 %
16.09.2015 23:40 15,3 C 15,6 C 13,3 C 90 % 0 lf 992,7 hPa 0,0 l/m 0 min 0 min 0 W/m 16,7 km/h (3 Bft) 93,62 %
16.09.2015 23:42 15,3 C 15,6 C 13,3 C 90 % 0 lf 992,9 hPa 0,0 l/m 0 min 0 min 0 W/m 20,9 km/h (4 Bft) 91,49 %
16.09.2015 23:44 15,3 C 15,6 C 13,3 C 90 % 0 lf 992,8 hPa 0,0 l/m 0 min 0 min 0 W/m 27,2 km/h (4 Bft) 95,65 %
16.09.2015 23:46 15,3 C 15,6 C 13,9 C 89 % 0 lf 992,6 hPa 0,0 l/m 0 min 0 min 0 W/m 23,0 km/h (4 Bft) 93,62 %
16.09.2015 23:48 15,4 C 15,6 C 13,3 C 89 % 0 lf 992,7 hPa 0,0 l/m 0 min 0 min 0 W/m 18,8 km/h (3 Bft) 93,62 %
16.09.2015 23:50 15,4 C 15,6 C 13,9 C 89 % 0 lf 992,6 hPa 0,0 l/m 0 min 0 min 0 W/m 16,7 km/h (3 Bft) 93,62 %
16.09.2015 23:52 15,4 C 16,1 C 13,9 C 89 % 0 lf 992,5 hPa 0,0 l/m 0 min 0 min 0 W/m 23,0 km/h (4 Bft) 93,62 %
16.09.2015 23:54 15,4 C 16,1 C 13,9 C 88 % 0 lf 992,4 hPa 0,0 l/m 0 min 0 min 0 W/m 27,2 km/h (4 Bft) 95,74 %
16.09.2015 23:56 15,4 C 16,1 C 13,9 C 88 % 0 lf 992,6 hPa 0,0 l/m 0 min 0 min 0 W/m 20,9 km/h (4 Bft) 97,83 %
16.09.2015 23:58 15,4 C 16,1 C 13,9 C 87 % 0 lf 992,4 hPa 0,0 l/m 0 min 0 min 0 W/m 18,8 km/h (3 Bft) 95,74 %
_ Min-Zeit 00:05 00:02 00:00 00:00 00:00 17:10 - - - - 19:02 14:26
Minimum _ 11,7 C 11,1 C 10,0 C 82 % 0 lf 989,8 hPa - - - - 6,3 km/h (2 Bft) 85,11 %
_ Max-Zeit 18:30 16:44 16:48 16:56 05:54 00:20 18:56 09:40 02:26 13:50 16:28 01:32
Maximum _ 17,6 C 17,2 C 16,1 C 99 % 15 lf 1002,3 hPa 3,4 l/m 2 min 2 min 306 W/m 41,8 km/h
SO (6 Bft)
100,00 %
Durchschnitt _ 14,7 C 14,5 C 13,2 C 95 % 9 lf 994,6 hPa #23,0 l/m #38 min. #12:54 h 91 W/m 22,3 km/h (4 Bft) 96,32 %
© 2015 W. Hausmann